Time,TemperatureF,DewpointF,PressureIn,WindDirection,WindDirectionDegrees,WindSpeedMPH,WindSpeedGustMPH,Humidity,HourlyPrecipIn,Conditions,Clouds,dailyrainin,SoftwareType,DateUTC
2013-02-03 00:00:00,51.7,27.5,30.11,North,0,0.0,0.0,39,0.00,,,0.00,WUHU216HW,2013-02-03 07:00:00,
2013-02-03 00:02:00,51.7,27.5,30.11,North,0,0.0,0.0,39,0.00,,,0.00,WUHU216HW,2013-02-03 07:02:00,
2013-02-03 00:06:00,51.7,27.5,30.11,North,0,0.0,0.0,39,0.00,,,0.00,WUHU216HW,2013-02-03 07:06:00,
2013-02-03 00:07:00,51.7,27.5,30.11,North,0,0.0,0.0,39,0.00,,,0.00,WUHU216HW,2013-02-03 07:07:00,
2013-02-03 00:08:00,51.7,27.5,30.11,North,0,0.0,0.0,39,0.00,,,0.00,WUHU216HW,2013-02-03 07:08:00,
2013-02-03 00:12:00,51.7,27.5,30.11,North,0,0.0,0.0,39,0.00,,,0.00,WUHU216HW,2013-02-03 07:12:00,
2013-02-03 00:14:00,51.7,27.5,30.11,North,0,0.0,0.0,39,0.00,,,0.00,WUHU216HW,2013-02-03 07:14:00,
2013-02-03 00:17:00,51.7,27.5,30.11,North,0,0.0,0.0,39,0.00,,,0.00,WUHU216HW,2013-02-03 07:17:00,
2013-02-03 00:18:00,51.7,27.5,30.11,North,0,0.0,0.0,39,0.00,,,0.00,WUHU216HW,2013-02-03 07:18:00,
2013-02-03 00:20:00,51.7,27.5,30.11,North,0,0.0,0.0,39,0.00,,,0.00,WUHU216HW,2013-02-03 07:20:00,
2013-02-03 00:22:00,51.7,27.5,30.11,North,0,0.0,0.0,39,0.00,,,0.00,WUHU216HW,2013-02-03 07:22:00,
2013-02-03 00:23:00,51.7,27.5,30.11,North,0,0.0,0.0,39,0.00,,,0.00,WUHU216HW,2013-02-03 07:23:00,
2013-02-03 00:25:00,51.7,27.5,30.11,North,0,0.0,0.0,39,0.00,,,0.00,WUHU216HW,2013-02-03 07:25:00,
2013-02-03 00:26:00,51.7,27.5,30.11,North,0,0.0,0.0,39,0.00,,,0.00,WUHU216HW,2013-02-03 07:26:00,
2013-02-03 00:27:00,51.5,27.3,30.11,North,0,0.0,0.0,39,0.00,,,0.00,WUHU216HW,2013-02-03 07:27:00,
2013-02-03 00:28:00,51.5,27.9,30.11,North,0,0.0,0.0,40,0.00,,,0.00,WUHU216HW,2013-02-03 07:28:00,
2013-02-03 00:30:00,51.5,27.9,30.11,North,0,0.0,0.0,40,0.00,,,0.00,WUHU216HW,2013-02-03 07:30:00,
2013-02-03 00:31:00,51.5,27.9,30.11,North,0,0.0,0.0,40,0.00,,,0.00,WUHU216HW,2013-02-03 07:31:00,
2013-02-03 00:32:00,51.5,27.9,30.11,North,0,0.0,0.0,40,0.00,,,0.00,WUHU216HW,2013-02-03 07:32:00,
2013-02-03 00:34:00,51.5,27.9,30.11,North,0,0.0,0.0,40,0.00,,,0.00,WUHU216HW,2013-02-03 07:34:00,
2013-02-03 00:36:00,51.5,27.9,30.11,North,0,0.0,0.0,40,0.00,,,0.00,WUHU216HW,2013-02-03 07:36:00,
2013-02-03 00:37:00,51.5,27.9,30.11,North,0,0.0,0.0,40,0.00,,,0.00,WUHU216HW,2013-02-03 07:37:00,
2013-02-03 00:39:00,51.3,27.8,30.11,North,0,0.0,0.0,40,0.00,,,0.00,WUHU216HW,2013-02-03 07:39:00,
2013-02-03 00:40:00,51.3,27.8,30.11,North,0,0.0,0.0,40,0.00,,,0.00,WUHU216HW,2013-02-03 07:40:00,
2013-02-03 00:41:00,51.3,28.4,30.11,North,0,0.0,0.0,41,0.00,,,0.00,WUHU216HW,2013-02-03 07:41:00,
2013-02-03 00:43:00,51.3,27.8,30.11,North,0,0.0,0.0,40,0.00,,,0.00,WUHU216HW,2013-02-03 07:43:00,
2013-02-03 00:46:00,51.1,27.6,30.11,North,0,0.0,0.0,40,0.00,,,0.00,WUHU216HW,2013-02-03 07:46:00,
2013-02-03 00:48:00,51.1,27.6,30.11,North,0,0.0,0.0,40,0.00,,,0.00,WUHU216HW,2013-02-03 07:48:00,
2013-02-03 00:51:00,51.1,27.6,30.11,North,0,0.0,0.0,40,0.00,,,0.00,WUHU216HW,2013-02-03 07:51:00,
2013-02-03 00:53:00,51.1,27.6,30.11,North,0,0.0,0.0,40,0.00,,,0.00,WUHU216HW,2013-02-03 07:53:00,
2013-02-03 00:56:00,51.3,27.8,30.10,North,0,0.0,0.0,40,0.00,,,0.00,WUHU216HW,2013-02-03 07:56:00,
2013-02-03 00:57:00,51.3,27.8,30.10,North,0,0.0,0.0,40,0.00,,,0.00,WUHU216HW,2013-02-03 07:57:00,
2013-02-03 00:58:00,51.1,27.6,30.10,North,0,0.0,0.0,40,0.00,,,0.00,WUHU216HW,2013-02-03 07:58:00,
2013-02-03 01:02:00,51.1,28.2,30.10,North,0,0.0,0.0,41,0.00,,,0.00,WUHU216HW,2013-02-03 08:02:00,
2013-02-03 01:03:00,51.1,28.2,30.10,North,0,0.0,0.0,41,0.00,,,0.00,WUHU216HW,2013-02-03 08:03:00,
2013-02-03 01:04:00,51.1,28.2,30.10,North,0,0.0,0.0,41,0.00,,,0.00,WUHU216HW,2013-02-03 08:04:00,
2013-02-03 01:08:00,51.1,28.2,30.10,North,0,0.0,0.0,41,0.00,,,0.00,WUHU216HW,2013-02-03 08:08:00,
2013-02-03 01:09:00,51.1,28.2,30.10,North,0,0.0,0.0,41,0.00,,,0.00,WUHU216HW,2013-02-03 08:09:00,
2013-02-03 01:10:00,51.1,28.2,30.10,North,0,0.0,0.0,41,0.00,,,0.00,WUHU216HW,2013-02-03 08:10:00,
2013-02-03 01:13:00,50.9,28.0,30.10,North,0,0.0,0.0,41,0.00,,,0.00,WUHU216HW,2013-02-03 08:13:00,
2013-02-03 01:14:00,50.8,27.8,30.10,North,0,0.0,0.0,41,0.00,,,0.00,WUHU216HW,2013-02-03 08:14:00,
2013-02-03 01:15:00,50.8,27.8,30.10,North,0,0.0,0.0,41,0.00,,,0.00,WUHU216HW,2013-02-03 08:15:00,
2013-02-03 01:19:00,50.8,28.5,30.10,North,0,0.0,0.0,42,0.00,,,0.00,WUHU216HW,2013-02-03 08:19:00,
2013-02-03 01:20:00,50.8,28.5,30.10,North,0,0.0,0.0,42,0.00,,,0.00,WUHU216HW,2013-02-03 08:20:00,
2013-02-03 01:21:00,50.8,28.5,30.10,North,0,0.0,0.0,42,0.00,,,0.00,WUHU216HW,2013-02-03 08:21:00,
2013-02-03 01:24:00,50.6,28.3,30.10,North,0,0.0,0.0,42,0.00,,,0.00,WUHU216HW,2013-02-03 08:24:00,
2013-02-03 01:26:00,50.6,28.3,30.10,North,0,0.0,0.0,42,0.00,,,0.00,WUHU216HW,2013-02-03 08:26:00,
2013-02-03 01:27:00,50.6,28.8,30.10,North,0,0.0,0.0,43,0.00,,,0.00,WUHU216HW,2013-02-03 08:27:00,
2013-02-03 01:29:00,50.6,28.8,30.09,North,0,0.0,0.0,43,0.00,,,0.00,WUHU216HW,2013-02-03 08:29:00,
2013-02-03 01:31:00,50.4,28.6,30.09,North,0,0.0,0.0,43,0.00,,,0.00,WUHU216HW,2013-02-03 08:31:00,
2013-02-03 01:33:00,50.4,28.6,30.09,North,0,0.0,0.0,43,0.00,,,0.00,WUHU216HW,2013-02-03 08:33:00,
2013-02-03 01:35:00,50.4,28.6,30.09,North,0,0.0,0.0,43,0.00,,,0.00,WUHU216HW,2013-02-03 08:35:00,
2013-02-03 01:37:00,50.2,28.4,30.09,North,0,0.0,0.0,43,0.00,,,0.00,WUHU216HW,2013-02-03 08:37:00,
2013-02-03 01:38:00,50.4,28.6,30.09,North,0,0.0,0.0,43,0.00,,,0.00,WUHU216HW,2013-02-03 08:38:00,
2013-02-03 01:39:00,50.4,28.6,30.09,North,0,0.0,0.0,43,0.00,,,0.00,WUHU216HW,2013-02-03 08:39:00,
2013-02-03 01:40:00,50.4,28.6,30.09,North,0,0.0,0.0,43,0.00,,,0.00,WUHU216HW,2013-02-03 08:40:00,
2013-02-03 01:43:00,50.4,28.6,30.09,North,0,0.0,0.0,43,0.00,,,0.00,WUHU216HW,2013-02-03 08:43:00,
2013-02-03 01:44:00,50.4,28.1,30.09,North,0,0.0,0.0,42,0.00,,,0.00,WUHU216HW,2013-02-03 08:44:00,
2013-02-03 01:45:00,50.4,28.1,30.09,North,0,0.0,0.0,42,0.00,,,0.00,WUHU216HW,2013-02-03 08:45:00,
2013-02-03 01:49:00,50.8,28.5,30.08,North,0,0.0,0.0,42,0.00,,,0.00,WUHU216HW,2013-02-03 08:49:00,
2013-02-03 01:50:00,50.8,28.5,30.08,North,0,0.0,0.0,42,0.00,,,0.00,WUHU216HW,2013-02-03 08:50:00,
2013-02-03 01:55:00,50.9,28.5,30.08,North,0,0.0,0.0,42,0.00,,,0.00,WUHU216HW,2013-02-03 08:55:00,
2013-02-03 01:56:00,50.9,28.5,30.08,North,0,0.0,0.0,42,0.00,,,0.00,WUHU216HW,2013-02-03 08:56:00,
2013-02-03 02:00:00,50.8,28.5,30.08,North,0,0.0,0.0,42,0.00,,,0.00,WUHU216HW,2013-02-03 09:00:00,
2013-02-03 02:01:00,50.8,29.0,30.08,North,0,0.0,0.0,43,0.00,,,0.00,WUHU216HW,2013-02-03 09:01:00,
2013-02-03 02:03:00,50.6,28.8,30.08,North,0,0.0,0.0,43,0.00,,,0.00,WUHU216HW,2013-02-03 09:03:00,
2013-02-03 02:05:00,50.6,28.8,30.08,North,0,0.0,0.0,43,0.00,,,0.00,WUHU216HW,2013-02-03 09:05:00,
2013-02-03 02:06:00,50.6,28.8,30.08,North,0,0.0,0.0,43,0.00,,,0.00,WUHU216HW,2013-02-03 09:06:00,
2013-02-03 02:09:00,50.6,28.3,30.08,North,0,0.0,0.0,42,0.00,,,0.00,WUHU216HW,2013-02-03 09:09:00,
2013-02-03 02:11:00,50.6,28.3,30.08,North,0,0.0,0.0,42,0.00,,,0.00,WUHU216HW,2013-02-03 09:11:00,
2013-02-03 02:12:00,50.6,28.3,30.08,North,0,0.0,0.0,42,0.00,,,0.00,WUHU216HW,2013-02-03 09:12:00,
2013-02-03 02:14:00,50.6,28.3,30.08,North,0,0.0,0.0,42,0.00,,,0.00,WUHU216HW,2013-02-03 09:14:00,
2013-02-03 02:16:00,50.6,28.3,30.08,North,0,0.0,0.0,42,0.00,,,0.00,WUHU216HW,2013-02-03 09:16:00,
2013-02-03 02:17:00,50.4,28.1,30.08,North,0,0.0,0.0,42,0.00,,,0.00,WUHU216HW,2013-02-03 09:17:00,
2013-02-03 02:18:00,50.6,28.3,30.08,North,0,0.0,0.0,42,0.00,,,0.00,WUHU216HW,2013-02-03 09:18:00,
2013-02-03 02:19:00,50.4,28.1,30.08,North,0,0.0,0.0,42,0.00,,,0.00,WUHU216HW,2013-02-03 09:19:00,
2013-02-03 02:21:00,50.4,28.1,30.07,North,0,0.0,0.0,42,0.00,,,0.00,WUHU216HW,2013-02-03 09:21:00,
2013-02-03 02:23:00,50.6,28.3,30.07,North,0,0.0,0.0,42,0.00,,,0.00,WUHU216HW,2013-02-03 09:23:00,
2013-02-03 02:24:00,50.6,28.3,30.07,North,0,0.0,0.0,42,0.00,,,0.00,WUHU216HW,2013-02-03 09:24:00,
2013-02-03 02:25:00,50.6,28.3,30.07,North,0,0.0,0.0,42,0.00,,,0.00,WUHU216HW,2013-02-03 09:25:00,
2013-02-03 02:27:00,50.6,28.3,30.07,North,0,0.0,0.0,42,0.00,,,0.00,WUHU216HW,2013-02-03 09:27:00,
2013-02-03 02:28:00,50.6,28.3,30.07,North,0,0.0,0.0,42,0.00,,,0.00,WUHU216HW,2013-02-03 09:28:00,
2013-02-03 02:30:00,50.6,28.3,30.07,North,0,0.0,0.0,42,0.00,,,0.00,WUHU216HW,2013-02-03 09:30:00,
2013-02-03 02:31:00,50.6,28.3,30.07,North,0,0.0,0.0,42,0.00,,,0.00,WUHU216HW,2013-02-03 09:31:00,
2013-02-03 02:32:00,50.6,28.3,30.07,North,0,0.0,0.0,42,0.00,,,0.00,WUHU216HW,2013-02-03 09:32:00,
2013-02-03 02:34:00,50.6,28.3,30.07,North,0,0.0,0.0,42,0.00,,,0.00,WUHU216HW,2013-02-03 09:34:00,
2013-02-03 02:36:00,50.6,28.3,30.07,North,0,0.0,0.0,42,0.00,,,0.00,WUHU216HW,2013-02-03 09:36:00,
2013-02-03 02:37:00,50.6,28.3,30.07,North,0,0.0,0.0,42,0.00,,,0.00,WUHU216HW,2013-02-03 09:37:00,
2013-02-03 02:38:00,50.6,28.3,30.07,North,0,0.0,0.0,42,0.00,,,0.00,WUHU216HW,2013-02-03 09:38:00,
2013-02-03 02:39:00,50.8,28.5,30.07,North,0,0.0,0.0,42,0.00,,,0.00,WUHU216HW,2013-02-03 09:39:00,
2013-02-03 02:43:00,50.8,28.5,30.07,North,0,0.0,0.0,42,0.00,,,0.00,WUHU216HW,2013-02-03 09:43:00,
2013-02-03 02:45:00,50.8,28.5,30.07,North,0,0.0,0.0,42,0.00,,,0.00,WUHU216HW,2013-02-03 09:45:00,
2013-02-03 02:48:00,50.8,28.5,30.07,North,0,0.0,0.0,42,0.00,,,0.00,WUHU216HW,2013-02-03 09:48:00,
2013-02-03 02:51:00,50.6,28.3,30.07,North,0,0.0,0.0,42,0.00,,,0.00,WUHU216HW,2013-02-03 09:51:00,
2013-02-03 02:53:00,50.6,28.3,30.07,North,0,0.0,0.0,42,0.00,,,0.00,WUHU216HW,2013-02-03 09:53:00,
2013-02-03 02:54:00,50.6,28.3,30.07,North,0,0.0,0.0,42,0.00,,,0.00,WUHU216HW,2013-02-03 09:54:00,
2013-02-03 02:56:00,50.6,28.3,30.07,North,0,0.0,0.0,42,0.00,,,0.00,WUHU216HW,2013-02-03 09:56:00,
2013-02-03 02:58:00,50.6,28.3,30.07,North,0,0.0,0.0,42,0.00,,,0.00,WUHU216HW,2013-02-03 09:58:00,
2013-02-03 02:59:00,50.6,28.3,30.07,North,0,0.0,0.0,42,0.00,,,0.00,WUHU216HW,2013-02-03 09:59:00,
2013-02-03 03:00:00,50.6,28.3,30.07,North,0,0.0,0.0,42,0.00,,,0.00,WUHU216HW,2013-02-03 10:00:00,
2013-02-03 03:01:00,50.8,28.5,30.06,North,0,0.0,0.0,42,0.00,,,0.00,WUHU216HW,2013-02-03 10:01:00,
2013-02-03 03:04:00,50.6,28.3,30.06,North,0,0.0,0.0,42,0.00,,,0.00,WUHU216HW,2013-02-03 10:04:00,
2013-02-03 03:05:00,50.6,28.3,30.06,North,0,0.0,0.0,42,0.00,,,0.00,WUHU216HW,2013-02-03 10:05:00,
2013-02-03 03:09:00,50.4,28.6,30.06,North,0,0.0,0.0,43,0.00,,,0.00,WUHU216HW,2013-02-03 10:09:00,
2013-02-03 03:10:00,50.4,28.6,30.06,North,0,0.0,0.0,43,0.00,,,0.00,WUHU216HW,2013-02-03 10:10:00,
2013-02-03 03:11:00,50.4,28.6,30.06,North,0,0.0,0.0,43,0.00,,,0.00,WUHU216HW,2013-02-03 10:11:00,
2013-02-03 03:14:00,50.4,28.6,30.06,North,0,0.0,0.0,43,0.00,,,0.00,WUHU216HW,2013-02-03 10:14:00,
2013-02-03 03:15:00,50.4,28.6,30.06,North,0,0.0,0.0,43,0.00,,,0.00,WUHU216HW,2013-02-03 10:15:00,
2013-02-03 03:16:00,50.2,28.4,30.06,North,0,0.0,0.0,43,0.00,,,0.00,WUHU216HW,2013-02-03 10:16:00,
2013-02-03 03:17:00,50.4,28.6,30.06,North,0,0.0,0.0,43,0.00,,,0.00,WUHU216HW,2013-02-03 10:17:00,
2013-02-03 03:20:00,50.2,27.9,30.06,North,0,0.0,0.0,42,0.00,,,0.00,WUHU216HW,2013-02-03 10:20:00,
2013-02-03 03:21:00,50.2,27.9,30.06,North,0,0.0,0.0,42,0.00,,,0.00,WUHU216HW,2013-02-03 10:21:00,
2013-02-03 03:22:00,50.0,27.7,30.06,North,0,0.0,0.0,42,0.00,,,0.00,WUHU216HW,2013-02-03 10:22:00,
2013-02-03 03:26:00,50.0,27.7,30.06,North,0,0.0,0.0,42,0.00,,,0.00,WUHU216HW,2013-02-03 10:26:00,
2013-02-03 03:28:00,50.0,28.4,30.06,North,0,0.0,0.0,43,0.00,,,0.00,WUHU216HW,2013-02-03 10:28:00,
2013-02-03 03:31:00,50.0,28.4,30.06,North,0,0.0,0.0,43,0.00,,,0.00,WUHU216HW,2013-02-03 10:31:00,
2013-02-03 03:32:00,50.0,28.4,30.06,North,0,0.0,0.0,43,0.00,,,0.00,WUHU216HW,2013-02-03 10:32:00,
2013-02-03 03:34:00,49.9,28.2,30.06,North,0,0.0,0.0,43,0.00,,,0.00,WUHU216HW,2013-02-03 10:34:00,
2013-02-03 03:36:00,49.9,28.2,30.05,North,0,0.0,0.0,43,0.00,,,0.00,WUHU216HW,2013-02-03 10:36:00,
2013-02-03 03:37:00,49.9,28.2,30.05,North,0,0.0,0.0,43,0.00,,,0.00,WUHU216HW,2013-02-03 10:37:00,
2013-02-03 03:41:00,49.9,28.2,30.05,North,0,0.0,0.0,43,0.00,,,0.00,WUHU216HW,2013-02-03 10:41:00,
2013-02-03 03:42:00,49.9,28.2,30.05,North,0,0.0,0.0,43,0.00,,,0.00,WUHU216HW,2013-02-03 10:42:00,
2013-02-03 03:43:00,49.9,28.2,30.05,North,0,0.0,0.0,43,0.00,,,0.00,WUHU216HW,2013-02-03 10:43:00,
2013-02-03 03:44:00,49.9,28.2,30.05,North,0,0.0,0.0,43,0.00,,,0.00,WUHU216HW,2013-02-03 10:44:00,
2013-02-03 03:47:00,49.9,28.2,30.05,North,0,0.0,0.0,43,0.00,,,0.00,WUHU216HW,2013-02-03 10:47:00,
2013-02-03 03:48:00,49.7,28.0,30.05,North,0,0.0,0.0,43,0.00,,,0.00,WUHU216HW,2013-02-03 10:48:00,
2013-02-03 03:49:00,49.9,28.2,30.05,North,0,0.0,0.0,43,0.00,,,0.00,WUHU216HW,2013-02-03 10:49:00,
2013-02-03 03:52:00,49.9,28.2,30.05,North,0,0.0,0.0,43,0.00,,,0.00,WUHU216HW,2013-02-03 10:52:00,
2013-02-03 03:54:00,49.9,28.2,30.05,North,0,0.0,0.0,43,0.00,,,0.00,WUHU216HW,2013-02-03 10:54:00,
2013-02-03 03:57:00,49.9,28.2,30.04,North,0,0.0,0.0,43,0.00,,,0.00,WUHU216HW,2013-02-03 10:57:00,
2013-02-03 03:58:00,49.7,28.0,30.04,North,0,0.0,0.0,43,0.00,,,0.00,WUHU216HW,2013-02-03 10:58:00,
2013-02-03 03:59:00,49.9,28.2,30.04,North,0,0.0,0.0,43,0.00,,,0.00,WUHU216HW,2013-02-03 10:59:00,
2013-02-03 04:01:00,49.7,28.0,30.04,North,0,0.0,0.0,43,0.00,,,0.00,WUHU216HW,2013-02-03 11:01:00,
2013-02-03 04:03:00,49.7,28.0,30.04,North,0,0.0,0.0,43,0.00,,,0.00,WUHU216HW,2013-02-03 11:03:00,
2013-02-03 04:04:00,49.7,28.0,30.04,North,0,0.0,0.0,43,0.00,,,0.00,WUHU216HW,2013-02-03 11:04:00,
2013-02-03 04:06:00,49.7,28.0,30.04,North,0,0.0,0.0,43,0.00,,,0.00,WUHU216HW,2013-02-03 11:06:00,
2013-02-03 04:08:00,49.5,27.8,30.04,North,0,0.0,0.0,43,0.00,,,0.00,WUHU216HW,2013-02-03 11:08:00,
2013-02-03 04:09:00,49.5,28.4,30.04,North,0,0.0,0.0,44,0.00,,,0.00,WUHU216HW,2013-02-03 11:09:00,
2013-02-03 04:11:00,49.3,28.2,30.04,North,0,0.0,0.0,44,0.00,,,0.00,WUHU216HW,2013-02-03 11:11:00,
2013-02-03 04:12:00,49.3,28.2,30.04,North,0,0.0,0.0,44,0.00,,,0.00,WUHU216HW,2013-02-03 11:12:00,
2013-02-03 04:13:00,49.3,28.2,30.04,North,0,0.0,0.0,44,0.00,,,0.00,WUHU216HW,2013-02-03 11:13:00,
2013-02-03 04:16:00,49.3,28.2,30.04,North,0,0.0,0.0,44,0.00,,,0.00,WUHU216HW,2013-02-03 11:16:00,
2013-02-03 04:18:00,49.3,28.2,30.04,North,0,0.0,0.0,44,0.00,,,0.00,WUHU216HW,2013-02-03 11:18:00,
2013-02-03 04:21:00,49.1,28.6,30.04,North,0,0.0,0.0,45,0.00,,,0.00,WUHU216HW,2013-02-03 11:21:00,
2013-02-03 04:22:00,49.1,28.6,30.04,North,0,0.0,0.0,45,0.00,,,0.00,WUHU216HW,2013-02-03 11:22:00,
2013-02-03 04:23:00,49.1,28.6,30.04,North,0,0.0,0.0,45,0.00,,,0.00,WUHU216HW,2013-02-03 11:23:00,
2013-02-03 04:24:00,49.1,28.6,30.04,North,0,0.0,0.0,45,0.00,,,0.00,WUHU216HW,2013-02-03 11:24:00,
2013-02-03 04:27:00,49.0,28.5,30.04,North,0,0.0,0.0,45,0.00,,,0.00,WUHU216HW,2013-02-03 11:27:00,
2013-02-03 04:28:00,49.0,28.5,30.04,North,0,0.0,0.0,45,0.00,,,0.00,WUHU216HW,2013-02-03 11:28:00,
2013-02-03 04:31:00,49.0,29.0,30.04,North,0,0.0,0.0,46,0.00,,,0.00,WUHU216HW,2013-02-03 11:31:00,
2013-02-03 04:32:00,48.8,28.8,30.04,North,0,0.0,0.0,46,0.00,,,0.00,WUHU216HW,2013-02-03 11:32:00,
2013-02-03 04:33:00,48.8,28.8,30.04,North,0,0.0,0.0,46,0.00,,,0.00,WUHU216HW,2013-02-03 11:33:00,
2013-02-03 04:34:00,48.6,28.6,30.04,North,0,0.0,0.0,46,0.00,,,0.00,WUHU216HW,2013-02-03 11:34:00,
2013-02-03 04:36:00,48.6,28.6,30.04,North,0,0.0,0.0,46,0.00,,,0.00,WUHU216HW,2013-02-03 11:36:00,
2013-02-03 04:38:00,48.6,28.6,30.04,North,0,0.0,0.0,46,0.00,,,0.00,WUHU216HW,2013-02-03 11:38:00,
2013-02-03 04:39:00,48.6,28.6,30.04,North,0,0.0,0.0,46,0.00,,,0.00,WUHU216HW,2013-02-03 11:39:00,
2013-02-03 04:41:00,48.6,28.6,30.04,North,0,0.0,0.0,46,0.00,,,0.00,WUHU216HW,2013-02-03 11:41:00,
2013-02-03 04:45:00,48.6,28.6,30.04,North,0,0.0,0.0,46,0.00,,,0.00,WUHU216HW,2013-02-03 11:45:00,
2013-02-03 04:46:00,48.6,28.6,30.03,North,0,0.0,0.0,46,0.00,,,0.00,WUHU216HW,2013-02-03 11:46:00,
2013-02-03 04:47:00,48.6,28.6,30.03,North,0,0.0,0.0,46,0.00,,,0.00,WUHU216HW,2013-02-03 11:47:00,
2013-02-03 04:50:00,48.6,28.6,30.03,North,0,0.0,0.0,46,0.00,,,0.00,WUHU216HW,2013-02-03 11:50:00,
2013-02-03 04:52:00,48.6,28.6,30.03,North,0,0.0,0.0,46,0.00,,,0.00,WUHU216HW,2013-02-03 11:52:00,
2013-02-03 04:56:00,48.6,28.6,30.03,North,0,0.0,0.0,46,0.00,,,0.00,WUHU216HW,2013-02-03 11:56:00,
2013-02-03 04:57:00,48.6,28.6,30.03,North,0,0.0,0.0,46,0.00,,,0.00,WUHU216HW,2013-02-03 11:57:00,
2013-02-03 04:59:00,48.6,28.6,30.03,North,0,0.0,0.0,46,0.00,,,0.00,WUHU216HW,2013-02-03 11:59:00,
2013-02-03 05:02:00,48.6,28.6,30.03,North,0,0.0,0.0,46,0.00,,,0.00,WUHU216HW,2013-02-03 12:02:00,
2013-02-03 05:03:00,48.6,28.6,30.03,North,0,0.0,0.0,46,0.00,,,0.00,WUHU216HW,2013-02-03 12:03:00,
2013-02-03 05:04:00,48.6,28.6,30.03,North,0,0.0,0.0,46,0.00,,,0.00,WUHU216HW,2013-02-03 12:04:00,
2013-02-03 05:07:00,48.6,28.6,30.03,North,0,0.0,0.0,46,0.00,,,0.00,WUHU216HW,2013-02-03 12:07:00,
2013-02-03 05:08:00,48.6,28.6,30.03,North,0,0.0,0.0,46,0.00,,,0.00,WUHU216HW,2013-02-03 12:08:00,
2013-02-03 05:09:00,48.6,28.6,30.03,North,0,0.0,0.0,46,0.00,,,0.00,WUHU216HW,2013-02-03 12:09:00,
2013-02-03 05:10:00,48.6,28.6,30.03,North,0,0.0,0.0,46,0.00,,,0.00,WUHU216HW,2013-02-03 12:10:00,
2013-02-03 05:13:00,48.6,28.6,30.03,North,0,0.0,0.0,46,0.00,,,0.00,WUHU216HW,2013-02-03 12:13:00,
2013-02-03 05:14:00,48.6,29.2,30.03,North,0,0.0,0.0,47,0.00,,,0.00,WUHU216HW,2013-02-03 12:14:00,
2013-02-03 05:16:00,48.6,29.2,30.03,North,0,0.0,0.0,47,0.00,,,0.00,WUHU216HW,2013-02-03 12:16:00,
2013-02-03 05:18:00,48.6,29.2,30.02,North,0,0.0,0.0,47,0.00,,,0.00,WUHU216HW,2013-02-03 12:18:00,
2013-02-03 05:19:00,48.4,29.0,30.02,North,0,0.0,0.0,47,0.00,,,0.00,WUHU216HW,2013-02-03 12:19:00,
2013-02-03 05:21:00,48.4,29.0,30.02,North,0,0.0,0.0,47,0.00,,,0.00,WUHU216HW,2013-02-03 12:21:00,
2013-02-03 05:24:00,48.4,29.0,30.02,North,0,0.0,0.0,47,0.00,,,0.00,WUHU216HW,2013-02-03 12:24:00,
2013-02-03 05:25:00,48.4,29.0,30.02,North,0,0.0,0.0,47,0.00,,,0.00,WUHU216HW,2013-02-03 12:25:00,
2013-02-03 05:26:00,48.4,29.0,30.02,North,0,0.0,0.0,47,0.00,,,0.00,WUHU216HW,2013-02-03 12:26:00,
2013-02-03 05:30:00,48.4,29.0,30.02,North,0,0.0,0.0,47,0.00,,,0.00,WUHU216HW,2013-02-03 12:30:00,
2013-02-03 05:32:00,48.4,29.0,30.02,North,0,0.0,0.0,47,0.00,,,0.00,WUHU216HW,2013-02-03 12:32:00,
2013-02-03 05:35:00,48.4,29.5,30.02,North,0,0.0,0.0,48,0.00,,,0.00,WUHU216HW,2013-02-03 12:35:00,
2013-02-03 05:37:00,48.2,29.3,30.02,North,0,0.0,0.0,48,0.00,,,0.00,WUHU216HW,2013-02-03 12:37:00,
2013-02-03 05:41:00,48.1,29.2,30.02,North,0,0.0,0.0,48,0.00,,,0.00,WUHU216HW,2013-02-03 12:41:00,
2013-02-03 05:43:00,48.1,29.2,30.02,North,0,0.0,0.0,48,0.00,,,0.00,WUHU216HW,2013-02-03 12:43:00,
2013-02-03 05:46:00,47.9,29.5,30.02,North,0,0.0,0.0,49,0.00,,,0.00,WUHU216HW,2013-02-03 12:46:00,
2013-02-03 05:48:00,47.9,29.5,30.02,North,0,0.0,0.0,49,0.00,,,0.00,WUHU216HW,2013-02-03 12:48:00,
2013-02-03 05:51:00,47.9,29.5,30.02,North,0,0.0,0.0,49,0.00,,,0.00,WUHU216HW,2013-02-03 12:51:00,
2013-02-03 05:53:00,47.9,29.5,30.02,North,0,0.0,0.0,49,0.00,,,0.00,WUHU216HW,2013-02-03 12:53:00,
2013-02-03 05:55:00,47.9,29.5,30.02,North,0,0.0,0.0,49,0.00,,,0.00,WUHU216HW,2013-02-03 12:55:00,
2013-02-03 05:56:00,47.9,29.5,30.02,North,0,0.0,0.0,49,0.00,,,0.00,WUHU216HW,2013-02-03 12:56:00,
2013-02-03 05:58:00,47.9,29.5,30.02,North,0,0.0,0.0,49,0.00,,,0.00,WUHU216HW,2013-02-03 12:58:00,
2013-02-03 05:59:00,47.7,29.4,30.02,North,0,0.0,0.0,49,0.00,,,0.00,WUHU216HW,2013-02-03 12:59:00,
2013-02-03 06:01:00,47.7,30.0,30.02,North,0,0.0,0.0,50,0.00,,,0.00,WUHU216HW,2013-02-03 13:01:00,
2013-02-03 06:02:00,47.7,29.4,30.02,North,0,0.0,0.0,49,0.00,,,0.00,WUHU216HW,2013-02-03 13:02:00,
2013-02-03 06:04:00,47.7,29.4,30.02,North,0,0.0,0.0,49,0.00,,,0.00,WUHU216HW,2013-02-03 13:04:00,
2013-02-03 06:07:00,47.7,29.4,30.02,North,0,0.0,0.0,49,0.00,,,0.00,WUHU216HW,2013-02-03 13:07:00,
2013-02-03 06:08:00,47.7,29.4,30.02,North,0,0.0,0.0,49,0.00,,,0.00,WUHU216HW,2013-02-03 13:08:00,
2013-02-03 06:09:00,47.7,29.4,30.02,North,0,0.0,0.0,49,0.00,,,0.00,WUHU216HW,2013-02-03 13:09:00,
2013-02-03 06:10:00,47.7,29.4,30.02,North,0,0.0,0.0,49,0.00,,,0.00,WUHU216HW,2013-02-03 13:10:00,
2013-02-03 06:12:00,47.7,29.4,30.02,North,0,0.0,0.0,49,0.00,,,0.00,WUHU216HW,2013-02-03 13:12:00,
2013-02-03 06:14:00,47.7,29.4,30.02,North,0,0.0,0.0,49,0.00,,,0.00,WUHU216HW,2013-02-03 13:14:00,
2013-02-03 06:15:00,47.9,29.5,30.01,North,0,0.0,0.0,49,0.00,,,0.00,WUHU216HW,2013-02-03 13:15:00,
2013-02-03 06:18:00,47.9,29.5,30.01,North,0,0.0,0.0,49,0.00,,,0.00,WUHU216HW,2013-02-03 13:18:00,
2013-02-03 06:19:00,47.9,29.5,30.01,North,0,0.0,0.0,49,0.00,,,0.00,WUHU216HW,2013-02-03 13:19:00,
2013-02-03 06:21:00,47.9,29.5,30.01,North,0,0.0,0.0,49,0.00,,,0.00,WUHU216HW,2013-02-03 13:21:00,
2013-02-03 06:23:00,47.9,29.5,30.01,North,0,0.0,0.0,49,0.00,,,0.00,WUHU216HW,2013-02-03 13:23:00,
2013-02-03 06:25:00,47.9,29.5,30.01,North,0,0.0,0.0,49,0.00,,,0.00,WUHU216HW,2013-02-03 13:25:00,
2013-02-03 06:26:00,47.9,29.5,30.01,North,0,0.0,0.0,49,0.00,,,0.00,WUHU216HW,2013-02-03 13:26:00,
2013-02-03 06:28:00,47.9,29.5,30.01,North,0,0.0,0.0,49,0.00,,,0.00,WUHU216HW,2013-02-03 13:28:00,
2013-02-03 06:29:00,47.9,29.5,30.01,North,0,0.0,0.0,49,0.00,,,0.00,WUHU216HW,2013-02-03 13:29:00,
2013-02-03 06:30:00,47.9,29.5,30.01,North,0,0.0,0.0,49,0.00,,,0.00,WUHU216HW,2013-02-03 13:30:00,
2013-02-03 06:31:00,47.9,29.5,30.02,North,0,0.0,0.0,49,0.00,,,0.00,WUHU216HW,2013-02-03 13:31:00,
2013-02-03 06:33:00,47.9,29.5,30.01,North,0,0.0,0.0,49,0.00,,,0.00,WUHU216HW,2013-02-03 13:33:00,
2013-02-03 06:35:00,47.9,29.5,30.01,North,0,0.0,0.0,49,0.00,,,0.00,WUHU216HW,2013-02-03 13:35:00,
2013-02-03 06:36:00,47.9,29.5,30.01,North,0,0.0,0.0,49,0.00,,,0.00,WUHU216HW,2013-02-03 13:36:00,
2013-02-03 06:37:00,47.9,29.5,30.01,North,0,0.0,0.0,49,0.00,,,0.00,WUHU216HW,2013-02-03 13:37:00,
2013-02-03 06:38:00,47.7,29.4,30.01,North,0,0.0,0.0,49,0.00,,,0.00,WUHU216HW,2013-02-03 13:38:00,
2013-02-03 06:40:00,47.7,30.0,30.01,North,0,0.0,0.0,50,0.00,,,0.00,WUHU216HW,2013-02-03 13:40:00,
2013-02-03 06:42:00,47.7,30.0,30.01,North,0,0.0,0.0,50,0.00,,,0.00,WUHU216HW,2013-02-03 13:42:00,
2013-02-03 06:44:00,47.5,29.8,30.01,North,0,0.0,0.0,50,0.00,,,0.00,WUHU216HW,2013-02-03 13:44:00,
2013-02-03 06:45:00,47.5,29.8,30.01,North,0,0.0,0.0,50,0.00,,,0.00,WUHU216HW,2013-02-03 13:45:00,
2013-02-03 06:47:00,47.5,29.8,30.02,North,0,0.0,0.0,50,0.00,,,0.00,WUHU216HW,2013-02-03 13:47:00,
2013-02-03 06:48:00,47.5,30.3,30.01,North,0,0.0,0.0,51,0.00,,,0.00,WUHU216HW,2013-02-03 13:48:00,
2013-02-03 06:49:00,47.5,30.3,30.01,North,0,0.0,0.0,51,0.00,,,0.00,WUHU216HW,2013-02-03 13:49:00,
2013-02-03 06:51:00,47.3,30.1,30.01,North,0,0.0,0.0,51,0.00,,,0.00,WUHU216HW,2013-02-03 13:51:00,
2013-02-03 06:52:00,47.3,29.6,30.01,North,0,0.0,0.0,50,0.00,,,0.00,WUHU216HW,2013-02-03 13:52:00,
2013-02-03 06:53:00,47.3,29.6,30.01,North,0,0.0,0.0,50,0.00,,,0.00,WUHU216HW,2013-02-03 13:53:00,
2013-02-03 06:55:00,47.5,29.8,30.01,North,0,0.0,0.0,50,0.00,,,0.00,WUHU216HW,2013-02-03 13:55:00,
2013-02-03 06:56:00,47.5,29.8,30.01,North,0,0.0,0.0,50,0.00,,,0.00,WUHU216HW,2013-02-03 13:56:00,
2013-02-03 06:58:00,47.3,30.1,30.01,North,0,0.0,0.0,51,0.00,,,0.00,WUHU216HW,2013-02-03 13:58:00,
2013-02-03 06:59:00,47.3,30.1,30.01,North,0,0.0,0.0,51,0.00,,,0.00,WUHU216HW,2013-02-03 13:59:00,
2013-02-03 07:00:00,47.3,29.6,30.01,North,0,0.0,0.0,50,0.00,,,0.00,WUHU216HW,2013-02-03 14:00:00,
2013-02-03 07:01:00,47.5,30.3,30.01,North,0,0.0,0.0,51,0.00,,,0.00,WUHU216HW,2013-02-03 14:01:00,
2013-02-03 07:04:00,47.5,29.8,30.01,North,0,0.0,0.0,50,0.00,,,0.00,WUHU216HW,2013-02-03 14:04:00,
2013-02-03 07:05:00,47.5,29.8,30.01,North,0,0.0,0.0,50,0.00,,,0.00,WUHU216HW,2013-02-03 14:05:00,
2013-02-03 07:06:00,47.5,30.3,30.01,North,0,0.0,0.0,51,0.00,,,0.00,WUHU216HW,2013-02-03 14:06:00,
2013-02-03 07:09:00,47.5,30.3,30.01,North,0,0.0,0.0,51,0.00,,,0.00,WUHU216HW,2013-02-03 14:09:00,
2013-02-03 07:10:00,47.5,30.3,30.01,North,0,0.0,0.0,51,0.00,,,0.00,WUHU216HW,2013-02-03 14:10:00,
2013-02-03 07:11:00,47.5,30.3,30.01,North,0,0.0,0.0,51,0.00,,,0.00,WUHU216HW,2013-02-03 14:11:00,
2013-02-03 07:12:00,47.5,30.3,30.01,North,0,0.0,0.0,51,0.00,,,0.00,WUHU216HW,2013-02-03 14:12:00,
2013-02-03 07:14:00,47.5,30.3,30.01,North,0,0.0,0.0,51,0.00,,,0.00,WUHU216HW,2013-02-03 14:14:00,
2013-02-03 07:16:00,47.5,30.3,30.01,North,0,0.0,0.0,51,0.00,,,0.00,WUHU216HW,2013-02-03 14:16:00,
2013-02-03 07:17:00,47.3,30.5,30.02,North,0,0.0,0.0,52,0.00,,,0.00,WUHU216HW,2013-02-03 14:17:00,
2013-02-03 07:19:00,47.3,31.0,30.02,North,0,0.0,0.0,53,0.00,,,0.00,WUHU216HW,2013-02-03 14:19:00,
2013-02-03 07:21:00,47.3,30.5,30.02,North,0,0.0,0.0,52,0.00,,,0.00,WUHU216HW,2013-02-03 14:21:00,
2013-02-03 07:22:00,47.3,30.5,30.02,North,0,0.0,0.0,52,0.00,,,0.00,WUHU216HW,2013-02-03 14:22:00,
2013-02-03 07:23:00,47.3,30.5,30.02,North,0,0.0,0.0,52,0.00,,,0.00,WUHU216HW,2013-02-03 14:23:00,
2013-02-03 07:25:00,47.3,30.5,30.02,North,0,0.0,0.0,52,0.00,,,0.00,WUHU216HW,2013-02-03 14:25:00,
2013-02-03 07:26:00,47.3,30.5,30.02,North,0,0.0,0.0,52,0.00,,,0.00,WUHU216HW,2013-02-03 14:26:00,
2013-02-03 07:27:00,47.3,31.0,30.02,North,0,0.0,0.0,53,0.00,,,0.00,WUHU216HW,2013-02-03 14:27:00,
2013-02-03 07:28:00,47.3,31.0,30.02,North,0,0.0,0.0,53,0.00,,,0.00,WUHU216HW,2013-02-03 14:28:00,
2013-02-03 07:30:00,47.2,30.3,30.02,North,0,0.0,0.0,52,0.00,,,0.00,WUHU216HW,2013-02-03 14:30:00,
2013-02-03 07:32:00,47.2,30.3,30.02,North,0,0.0,0.0,52,0.00,,,0.00,WUHU216HW,2013-02-03 14:32:00,
2013-02-03 07:33:00,47.2,30.3,30.02,North,0,0.0,0.0,52,0.00,,,0.00,WUHU216HW,2013-02-03 14:33:00,
2013-02-03 07:35:00,47.3,30.5,30.02,North,0,0.0,0.0,52,0.00,,,0.00,WUHU216HW,2013-02-03 14:35:00,
2013-02-03 07:38:00,47.3,30.5,30.02,North,0,0.0,0.0,52,0.00,,,0.00,WUHU216HW,2013-02-03 14:38:00,
2013-02-03 07:39:00,47.2,30.3,30.02,North,0,0.0,0.0,52,0.00,,,0.00,WUHU216HW,2013-02-03 14:39:00,
2013-02-03 07:40:00,47.3,30.5,30.02,North,0,0.0,0.0,52,0.00,,,0.00,WUHU216HW,2013-02-03 14:40:00,
2013-02-03 07:41:00,47.3,30.5,30.02,North,0,0.0,0.0,52,0.00,,,0.00,WUHU216HW,2013-02-03 14:41:00,
2013-02-03 07:43:00,47.3,31.0,30.02,North,0,0.0,0.0,53,0.00,,,0.00,WUHU216HW,2013-02-03 14:43:00,
2013-02-03 07:45:00,47.3,31.0,30.02,North,0,0.0,0.0,53,0.00,,,0.00,WUHU216HW,2013-02-03 14:45:00,
2013-02-03 07:46:00,47.3,31.0,30.02,North,0,0.0,0.0,53,0.00,,,0.00,WUHU216HW,2013-02-03 14:46:00,
2013-02-03 07:48:00,47.2,30.8,30.02,North,0,0.0,0.0,53,0.00,,,0.00,WUHU216HW,2013-02-03 14:48:00,
2013-02-03 07:51:00,47.3,31.0,30.02,North,0,0.0,0.0,53,0.00,,,0.00,WUHU216HW,2013-02-03 14:51:00,
2013-02-03 07:52:00,47.3,31.0,30.03,North,0,0.0,0.0,53,0.00,,,0.00,WUHU216HW,2013-02-03 14:52:00,
2013-02-03 07:54:00,47.2,30.8,30.03,North,0,0.0,0.0,53,0.00,,,0.00,WUHU216HW,2013-02-03 14:54:00,
2013-02-03 07:56:00,47.2,30.8,30.03,North,0,0.0,0.0,53,0.00,,,0.00,WUHU216HW,2013-02-03 14:56:00,
2013-02-03 07:57:00,47.3,31.0,30.03,North,0,0.0,0.0,53,0.00,,,0.00,WUHU216HW,2013-02-03 14:57:00,
2013-02-03 08:00:00,47.2,30.8,30.03,North,0,0.0,0.0,53,0.00,,,0.00,WUHU216HW,2013-02-03 15:00:00,
2013-02-03 08:01:00,47.3,31.0,30.03,North,0,0.0,0.0,53,0.00,,,0.00,WUHU216HW,2013-02-03 15:01:00,
2013-02-03 08:02:00,47.2,30.8,30.03,North,0,0.0,0.0,53,0.00,,,0.00,WUHU216HW,2013-02-03 15:02:00,
2013-02-03 08:05:00,47.2,30.8,30.03,North,0,0.0,0.0,53,0.00,,,0.00,WUHU216HW,2013-02-03 15:05:00,
2013-02-03 08:06:00,47.3,31.0,30.03,North,0,0.0,0.0,53,0.00,,,0.00,WUHU216HW,2013-02-03 15:06:00,
2013-02-03 08:07:00,47.2,30.8,30.04,North,0,0.0,0.0,53,0.00,,,0.00,WUHU216HW,2013-02-03 15:07:00,
2013-02-03 08:08:00,47.2,30.8,30.04,North,0,0.0,0.0,53,0.00,,,0.00,WUHU216HW,2013-02-03 15:08:00,
2013-02-03 08:10:00,47.2,31.3,30.04,North,0,0.0,0.0,54,0.00,,,0.00,WUHU216HW,2013-02-03 15:10:00,
2013-02-03 08:11:00,47.3,31.4,30.04,North,0,0.0,0.0,54,0.00,,,0.00,WUHU216HW,2013-02-03 15:11:00,
2013-02-03 08:12:00,47.3,31.4,30.04,North,0,0.0,0.0,54,0.00,,,0.00,WUHU216HW,2013-02-03 15:12:00,
2013-02-03 08:14:00,47.3,31.4,30.04,North,0,0.0,0.0,54,0.00,,,0.00,WUHU216HW,2013-02-03 15:14:00,
2013-02-03 08:16:00,47.3,31.4,30.04,North,0,0.0,0.0,54,0.00,,,0.00,WUHU216HW,2013-02-03 15:16:00,
2013-02-03 08:17:00,47.3,31.4,30.04,North,0,0.0,0.0,54,0.00,,,0.00,WUHU216HW,2013-02-03 15:17:00,
2013-02-03 08:18:00,47.3,31.4,30.04,North,0,0.0,0.0,54,0.00,,,0.00,WUHU216HW,2013-02-03 15:18:00,
2013-02-03 08:21:00,47.3,31.4,30.04,North,0,0.0,0.0,54,0.00,,,0.00,WUHU216HW,2013-02-03 15:21:00,
2013-02-03 08:22:00,47.3,31.4,30.04,North,0,0.0,0.0,54,0.00,,,0.00,WUHU216HW,2013-02-03 15:22:00,
2013-02-03 08:23:00,47.3,31.4,30.04,North,0,0.0,0.0,54,0.00,,,0.00,WUHU216HW,2013-02-03 15:23:00,
2013-02-03 08:26:00,47.3,31.4,30.04,North,0,0.0,0.0,54,0.00,,,0.00,WUHU216HW,2013-02-03 15:26:00,
2013-02-03 08:27:00,47.5,32.0,30.04,North,0,0.0,0.0,55,0.00,,,0.00,WUHU216HW,2013-02-03 15:27:00,
2013-02-03 08:28:00,47.3,31.9,30.04,North,0,0.0,0.0,55,0.00,,,0.00,WUHU216HW,2013-02-03 15:28:00,
2013-02-03 08:29:00,47.5,31.6,30.04,North,0,0.0,0.0,54,0.00,,,0.00,WUHU216HW,2013-02-03 15:29:00,
2013-02-03 08:32:00,47.3,31.9,30.04,North,0,0.0,0.0,55,0.00,,,0.00,WUHU216HW,2013-02-03 15:32:00,
2013-02-03 08:33:00,47.3,31.9,30.04,North,0,0.0,0.0,55,0.00,,,0.00,WUHU216HW,2013-02-03 15:33:00,
2013-02-03 08:34:00,47.3,31.9,30.04,North,0,0.0,0.0,55,0.00,,,0.00,WUHU216HW,2013-02-03 15:34:00,
2013-02-03 08:35:00,47.5,32.0,30.04,North,0,0.0,0.0,55,0.00,,,0.00,WUHU216HW,2013-02-03 15:35:00,
2013-02-03 08:37:00,47.5,32.0,30.04,North,0,0.0,0.0,55,0.00,,,0.00,WUHU216HW,2013-02-03 15:37:00,
2013-02-03 08:39:00,47.5,32.0,30.04,North,0,0.0,0.0,55,0.00,,,0.00,WUHU216HW,2013-02-03 15:39:00,
2013-02-03 08:41:00,47.5,32.0,30.04,North,0,0.0,0.0,55,0.00,,,0.00,WUHU216HW,2013-02-03 15:41:00,
2013-02-03 08:43:00,47.5,32.0,30.04,North,0,0.0,0.0,55,0.00,,,0.00,WUHU216HW,2013-02-03 15:43:00,
2013-02-03 08:44:00,47.7,32.2,30.04,North,0,0.0,0.0,55,0.00,,,0.00,WUHU216HW,2013-02-03 15:44:00,
2013-02-03 08:45:00,47.7,32.2,30.04,North,0,0.0,0.0,55,0.00,,,0.00,WUHU216HW,2013-02-03 15:45:00,
2013-02-03 08:46:00,47.7,32.2,30.04,North,0,0.0,0.0,55,0.00,,,0.00,WUHU216HW,2013-02-03 15:46:00,
2013-02-03 08:49:00,47.9,32.4,30.04,North,0,0.0,0.0,55,0.00,,,0.00,WUHU216HW,2013-02-03 15:49:00,
2013-02-03 08:50:00,47.9,32.4,30.04,North,0,0.0,0.0,55,0.00,,,0.00,WUHU216HW,2013-02-03 15:50:00,
2013-02-03 08:51:00,47.9,32.4,30.04,North,0,0.0,0.0,55,0.00,,,0.00,WUHU216HW,2013-02-03 15:51:00,
2013-02-03 08:54:00,47.9,32.4,30.04,North,0,0.0,0.0,55,0.00,,,0.00,WUHU216HW,2013-02-03 15:54:00,
2013-02-03 08:55:00,47.9,32.4,30.04,North,0,0.0,0.0,55,0.00,,,0.00,WUHU216HW,2013-02-03 15:55:00,
2013-02-03 08:57:00,48.1,32.6,30.05,North,0,0.0,0.0,55,0.00,,,0.00,WUHU216HW,2013-02-03 15:57:00,
2013-02-03 08:58:00,48.1,32.6,30.05,North,0,0.0,0.0,55,0.00,,,0.00,WUHU216HW,2013-02-03 15:58:00,
2013-02-03 09:00:00,48.2,32.3,30.05,North,0,0.0,0.0,54,0.00,,,0.00,WUHU216HW,2013-02-03 16:00:00,
2013-02-03 09:01:00,48.2,32.3,30.05,North,0,0.0,0.0,54,0.00,,,0.00,WUHU216HW,2013-02-03 16:01:00,
2013-02-03 09:02:00,48.2,32.3,30.04,North,0,0.0,0.0,54,0.00,,,0.00,WUHU216HW,2013-02-03 16:02:00,
2013-02-03 09:03:00,48.4,32.5,30.05,North,0,0.0,0.0,54,0.00,,,0.00,WUHU216HW,2013-02-03 16:03:00,
2013-02-03 09:05:00,48.4,32.5,30.04,North,0,0.0,0.0,54,0.00,,,0.00,WUHU216HW,2013-02-03 16:05:00,
2013-02-03 09:07:00,48.6,32.7,30.04,North,0,0.0,0.0,54,0.00,,,0.00,WUHU216HW,2013-02-03 16:07:00,
2013-02-03 09:09:00,48.6,32.7,30.04,North,0,0.0,0.0,54,0.00,,,0.00,WUHU216HW,2013-02-03 16:09:00,
2013-02-03 09:10:00,48.6,32.7,30.05,North,0,0.0,0.0,54,0.00,,,0.00,WUHU216HW,2013-02-03 16:10:00,
2013-02-03 09:13:00,48.6,32.7,30.05,North,0,0.0,0.0,54,0.00,,,0.00,WUHU216HW,2013-02-03 16:13:00,
2013-02-03 09:14:00,48.6,32.7,30.05,North,0,0.0,0.0,54,0.00,,,0.00,WUHU216HW,2013-02-03 16:14:00,
2013-02-03 09:15:00,48.6,32.7,30.05,North,0,0.0,0.0,54,0.00,,,0.00,WUHU216HW,2013-02-03 16:15:00,
2013-02-03 09:16:00,48.6,32.7,30.05,North,0,0.0,0.0,54,0.00,,,0.00,WUHU216HW,2013-02-03 16:16:00,
2013-02-03 09:19:00,48.8,32.9,30.05,North,0,0.0,0.0,54,0.00,,,0.00,WUHU216HW,2013-02-03 16:19:00,
2013-02-03 09:21:00,48.8,32.9,30.04,North,0,0.0,0.0,54,0.00,,,0.00,WUHU216HW,2013-02-03 16:21:00,
2013-02-03 09:22:00,48.8,32.9,30.04,North,0,0.0,0.0,54,0.00,,,0.00,WUHU216HW,2013-02-03 16:22:00,
2013-02-03 09:24:00,49.0,32.9,30.04,North,0,0.0,0.0,54,0.00,,,0.00,WUHU216HW,2013-02-03 16:24:00,
2013-02-03 09:25:00,49.0,32.9,30.04,North,0,0.0,0.0,54,0.00,,,0.00,WUHU216HW,2013-02-03 16:25:00,
2013-02-03 09:26:00,49.0,32.9,30.05,North,0,0.0,0.0,54,0.00,,,0.00,WUHU216HW,2013-02-03 16:26:00,
2013-02-03 09:27:00,49.0,32.5,30.05,North,0,0.0,0.0,53,0.00,,,0.00,WUHU216HW,2013-02-03 16:27:00,
2013-02-03 09:29:00,49.0,32.5,30.05,North,0,0.0,0.0,53,0.00,,,0.00,WUHU216HW,2013-02-03 16:29:00,
2013-02-03 09:30:00,49.0,32.5,30.05,North,0,0.0,0.0,53,0.00,,,0.00,WUHU216HW,2013-02-03 16:30:00,
2013-02-03 09:33:00,49.0,32.5,30.05,North,0,0.0,0.0,53,0.00,,,0.00,WUHU216HW,2013-02-03 16:33:00,
2013-02-03 09:35:00,49.0,32.5,30.05,North,0,0.0,0.0,53,0.00,,,0.00,WUHU216HW,2013-02-03 16:35:00,
2013-02-03 09:36:00,49.0,32.5,30.05,North,0,0.0,0.0,53,0.00,,,0.00,WUHU216HW,2013-02-03 16:36:00,
2013-02-03 09:38:00,49.0,32.5,30.05,North,0,0.0,0.0,53,0.00,,,0.00,WUHU216HW,2013-02-03 16:38:00,
2013-02-03 09:39:00,49.1,32.7,30.04,North,0,0.0,0.0,53,0.00,,,0.00,WUHU216HW,2013-02-03 16:39:00,
2013-02-03 09:41:00,49.1,32.7,30.04,North,0,0.0,0.0,53,0.00,,,0.00,WUHU216HW,2013-02-03 16:41:00,
2013-02-03 09:42:00,49.1,32.7,30.04,North,0,0.0,0.0,53,0.00,,,0.00,WUHU216HW,2013-02-03 16:42:00,
2013-02-03 09:43:00,49.1,32.7,30.04,North,0,0.0,0.0,53,0.00,,,0.00,WUHU216HW,2013-02-03 16:43:00,
2013-02-03 09:45:00,49.3,32.9,30.04,North,0,0.0,0.0,53,0.00,,,0.00,WUHU216HW,2013-02-03 16:45:00,
2013-02-03 09:46:00,49.1,32.2,30.04,North,0,0.0,0.0,52,0.00,,,0.00,WUHU216HW,2013-02-03 16:46:00,
2013-02-03 09:47:00,49.1,32.2,30.05,North,0,0.0,0.0,52,0.00,,,0.00,WUHU216HW,2013-02-03 16:47:00,
2013-02-03 09:49:00,49.3,32.4,30.05,North,0,0.0,0.0,52,0.00,,,0.00,WUHU216HW,2013-02-03 16:49:00,
2013-02-03 09:51:00,49.1,32.2,30.05,North,0,0.0,0.0,52,0.00,,,0.00,WUHU216HW,2013-02-03 16:51:00,
2013-02-03 09:52:00,49.1,32.2,30.05,North,0,0.0,0.0,52,0.00,,,0.00,WUHU216HW,2013-02-03 16:52:00,
2013-02-03 09:53:00,49.1,32.7,30.05,North,0,0.0,0.0,53,0.00,,,0.00,WUHU216HW,2013-02-03 16:53:00,
2013-02-03 09:54:00,49.3,32.9,30.05,North,0,0.0,0.0,53,0.00,,,0.00,WUHU216HW,2013-02-03 16:54:00,
2013-02-03 09:56:00,49.3,32.4,30.05,North,0,0.0,0.0,52,0.00,,,0.00,WUHU216HW,2013-02-03 16:56:00,
2013-02-03 09:57:00,49.3,32.4,30.05,North,0,0.0,0.0,52,0.00,,,0.00,WUHU216HW,2013-02-03 16:57:00,
2013-02-03 09:58:00,49.3,32.4,30.05,North,0,0.0,0.0,52,0.00,,,0.00,WUHU216HW,2013-02-03 16:58:00,
2013-02-03 10:00:00,49.3,32.9,30.05,North,0,0.0,0.0,53,0.00,,,0.00,WUHU216HW,2013-02-03 17:00:00,
2013-02-03 10:01:00,49.3,32.9,30.05,North,0,0.0,0.0,53,0.00,,,0.00,WUHU216HW,2013-02-03 17:01:00,
2013-02-03 10:03:00,49.3,32.9,30.05,North,0,0.0,0.0,53,0.00,,,0.00,WUHU216HW,2013-02-03 17:03:00,
2013-02-03 10:04:00,49.3,32.9,30.05,North,0,0.0,0.0,53,0.00,,,0.00,WUHU216HW,2013-02-03 17:04:00,
2013-02-03 10:06:00,49.3,32.9,30.05,North,0,0.0,0.0,53,0.00,,,0.00,WUHU216HW,2013-02-03 17:06:00,
2013-02-03 10:07:00,49.3,32.9,30.06,North,0,0.0,0.0,53,0.00,,,0.00,WUHU216HW,2013-02-03 17:07:00,
2013-02-03 10:08:00,49.3,32.9,30.06,North,0,0.0,0.0,53,0.00,,,0.00,WUHU216HW,2013-02-03 17:08:00,
2013-02-03 10:09:00,49.3,32.9,30.05,North,0,0.0,0.0,53,0.00,,,0.00,WUHU216HW,2013-02-03 17:09:00,
2013-02-03 10:12:00,49.5,32.6,30.05,North,0,0.0,0.0,52,0.00,,,0.00,WUHU216HW,2013-02-03 17:12:00,
2013-02-03 10:13:00,49.5,32.6,30.05,North,0,0.0,0.0,52,0.00,,,0.00,WUHU216HW,2013-02-03 17:13:00,
2013-02-03 10:15:00,49.3,32.4,30.05,North,0,0.0,0.0,52,0.00,,,0.00,WUHU216HW,2013-02-03 17:15:00,
2013-02-03 10:17:00,49.5,33.0,30.06,North,0,0.0,0.0,53,0.00,,,0.00,WUHU216HW,2013-02-03 17:17:00,
2013-02-03 10:18:00,49.5,32.6,30.06,North,0,0.0,0.0,52,0.00,,,0.00,WUHU216HW,2013-02-03 17:18:00,
2013-02-03 10:19:00,49.5,32.6,30.05,North,0,0.0,0.0,52,0.00,,,0.00,WUHU216HW,2013-02-03 17:19:00,
2013-02-03 10:20:00,49.7,32.8,30.05,North,0,0.0,0.0,52,0.00,,,0.00,WUHU216HW,2013-02-03 17:20:00,
2013-02-03 10:22:00,49.5,32.6,30.05,North,0,0.0,0.0,52,0.00,,,0.00,WUHU216HW,2013-02-03 17:22:00,
2013-02-03 10:23:00,49.7,33.2,30.05,North,0,0.0,0.0,53,0.00,,,0.00,WUHU216HW,2013-02-03 17:23:00,
2013-02-03 10:24:00,49.7,33.2,30.05,North,0,0.0,0.0,53,0.00,,,0.00,WUHU216HW,2013-02-03 17:24:00,
2013-02-03 10:25:00,49.7,33.2,30.05,North,0,0.0,0.0,53,0.00,,,0.00,WUHU216HW,2013-02-03 17:25:00,
2013-02-03 10:28:00,49.9,33.4,30.05,North,0,0.0,0.0,53,0.00,,,0.00,WUHU216HW,2013-02-03 17:28:00,
2013-02-03 10:29:00,50.0,33.6,30.05,North,0,0.0,0.0,53,0.00,,,0.00,WUHU216HW,2013-02-03 17:29:00,
2013-02-03 10:30:00,49.9,32.9,30.05,North,0,0.0,0.0,52,0.00,,,0.00,WUHU216HW,2013-02-03 17:30:00,
2013-02-03 10:31:00,50.0,33.1,30.05,North,0,0.0,0.0,52,0.00,,,0.00,WUHU216HW,2013-02-03 17:31:00,
2013-02-03 10:34:00,50.0,33.1,30.05,North,0,0.0,0.0,52,0.00,,,0.00,WUHU216HW,2013-02-03 17:34:00,
2013-02-03 10:35:00,50.0,33.1,30.05,North,0,0.0,0.0,52,0.00,,,0.00,WUHU216HW,2013-02-03 17:35:00,
2013-02-03 10:37:00,50.0,33.1,30.05,North,0,0.0,0.0,52,0.00,,,0.00,WUHU216HW,2013-02-03 17:37:00,
2013-02-03 10:40:00,50.2,32.9,30.05,North,0,0.0,0.0,51,0.00,,,0.00,WUHU216HW,2013-02-03 17:40:00,
2013-02-03 10:41:00,50.2,32.9,30.05,North,0,0.0,0.0,51,0.00,,,0.00,WUHU216HW,2013-02-03 17:41:00,
2013-02-03 10:42:00,50.4,33.0,30.05,North,0,0.0,0.0,51,0.00,,,0.00,WUHU216HW,2013-02-03 17:42:00,
2013-02-03 10:45:00,50.4,33.5,30.04,North,0,0.0,0.0,52,0.00,,,0.00,WUHU216HW,2013-02-03 17:45:00,
2013-02-03 10:46:00,50.4,33.5,30.05,North,0,0.0,0.0,52,0.00,,,0.00,WUHU216HW,2013-02-03 17:46:00,
2013-02-03 10:47:00,50.6,33.6,30.05,North,0,0.0,0.0,52,0.00,,,0.00,WUHU216HW,2013-02-03 17:47:00,
2013-02-03 10:51:00,50.8,33.3,30.05,North,0,0.0,0.0,51,0.00,,,0.00,WUHU216HW,2013-02-03 17:51:00,
2013-02-03 10:52:00,50.8,33.3,30.04,North,0,0.0,0.0,51,0.00,,,0.00,WUHU216HW,2013-02-03 17:52:00,
2013-02-03 10:53:00,50.8,33.3,30.04,North,0,0.0,0.0,51,0.00,,,0.00,WUHU216HW,2013-02-03 17:53:00,
2013-02-03 10:56:00,50.9,33.5,30.05,North,0,0.0,0.0,51,0.00,,,0.00,WUHU216HW,2013-02-03 17:56:00,
2013-02-03 10:57:00,50.9,33.5,30.05,North,0,0.0,0.0,51,0.00,,,0.00,WUHU216HW,2013-02-03 17:57:00,
2013-02-03 10:58:00,50.9,33.5,30.05,North,0,0.0,0.0,51,0.00,,,0.00,WUHU216HW,2013-02-03 17:58:00,
2013-02-03 10:59:00,50.9,33.5,30.05,North,0,0.0,0.0,51,0.00,,,0.00,WUHU216HW,2013-02-03 17:59:00,
2013-02-03 11:01:00,51.1,33.7,30.05,North,0,0.0,0.0,51,0.00,,,0.00,WUHU216HW,2013-02-03 18:01:00,
2013-02-03 11:03:00,51.1,33.7,30.05,North,0,0.0,0.0,51,0.00,,,0.00,WUHU216HW,2013-02-03 18:03:00,
2013-02-03 11:05:00,51.3,33.4,30.05,North,0,0.0,0.0,50,0.00,,,0.00,WUHU216HW,2013-02-03 18:05:00,
2013-02-03 11:07:00,51.5,33.5,30.05,North,0,0.0,0.0,50,0.00,,,0.00,WUHU216HW,2013-02-03 18:07:00,
2013-02-03 11:08:00,51.5,33.5,30.05,North,0,0.0,0.0,50,0.00,,,0.00,WUHU216HW,2013-02-03 18:08:00,
2013-02-03 11:10:00,51.5,33.5,30.04,North,0,0.0,0.0,50,0.00,,,0.00,WUHU216HW,2013-02-03 18:10:00,
2013-02-03 11:13:00,51.7,33.7,30.04,North,0,0.0,0.0,50,0.00,,,0.00,WUHU216HW,2013-02-03 18:13:00,
2013-02-03 11:14:00,51.8,33.8,30.04,North,0,0.0,0.0,50,0.00,,,0.00,WUHU216HW,2013-02-03 18:14:00,
2013-02-03 11:16:00,51.8,33.8,30.04,North,0,0.0,0.0,50,0.00,,,0.00,WUHU216HW,2013-02-03 18:16:00,
2013-02-03 11:18:00,52.0,34.0,30.04,North,0,0.0,0.0,50,0.00,,,0.00,WUHU216HW,2013-02-03 18:18:00,
2013-02-03 11:19:00,52.2,34.2,30.04,North,0,0.0,0.0,50,0.00,,,0.00,WUHU216HW,2013-02-03 18:19:00,
2013-02-03 11:21:00,52.2,34.2,30.04,North,0,0.0,0.0,50,0.00,,,0.00,WUHU216HW,2013-02-03 18:21:00,
2013-02-03 11:24:00,52.4,33.8,30.04,North,0,0.0,0.0,49,0.00,,,0.00,WUHU216HW,2013-02-03 18:24:00,
2013-02-03 11:25:00,52.6,33.9,30.04,North,0,0.0,0.0,49,0.00,,,0.00,WUHU216HW,2013-02-03 18:25:00,
2013-02-03 11:27:00,52.6,33.4,30.04,North,0,0.0,0.0,48,0.00,,,0.00,WUHU216HW,2013-02-03 18:27:00,
2013-02-03 11:28:00,52.6,33.4,30.04,North,0,0.0,0.0,48,0.00,,,0.00,WUHU216HW,2013-02-03 18:28:00,
2013-02-03 11:29:00,52.7,33.6,30.04,North,0,0.0,0.0,48,0.00,,,0.00,WUHU216HW,2013-02-03 18:29:00,
2013-02-03 11:31:00,52.7,32.9,30.04,North,0,0.0,0.0,47,0.00,,,0.00,WUHU216HW,2013-02-03 18:31:00,
2013-02-03 11:32:00,52.9,33.1,30.04,North,0,0.0,0.0,47,0.00,,,0.00,WUHU216HW,2013-02-03 18:32:00,
2013-02-03 11:33:00,52.9,33.1,30.03,North,0,0.0,0.0,47,0.00,,,0.00,WUHU216HW,2013-02-03 18:33:00,
2013-02-03 11:35:00,52.9,33.1,30.03,North,0,0.0,0.0,47,0.00,,,0.00,WUHU216HW,2013-02-03 18:35:00,
2013-02-03 11:37:00,52.9,33.1,30.03,North,0,0.0,0.0,47,0.00,,,0.00,WUHU216HW,2013-02-03 18:37:00,
2013-02-03 11:38:00,52.9,33.1,30.03,North,0,0.0,0.0,47,0.00,,,0.00,WUHU216HW,2013-02-03 18:38:00,
2013-02-03 11:39:00,52.9,33.1,30.03,North,0,0.0,0.0,47,0.00,,,0.00,WUHU216HW,2013-02-03 18:39:00,
2013-02-03 11:40:00,53.1,33.3,30.03,North,0,0.0,0.0,47,0.00,,,0.00,WUHU216HW,2013-02-03 18:40:00,
2013-02-03 11:42:00,52.9,33.1,30.03,North,0,0.0,0.0,47,0.00,,,0.00,WUHU216HW,2013-02-03 18:42:00,
2013-02-03 11:44:00,53.1,33.3,30.02,North,0,0.0,0.0,47,0.00,,,0.00,WUHU216HW,2013-02-03 18:44:00,
2013-02-03 11:46:00,53.1,33.3,30.02,North,0,0.0,0.0,47,0.00,,,0.00,WUHU216HW,2013-02-03 18:46:00,
2013-02-03 11:48:00,53.3,33.5,30.02,North,0,0.0,0.0,47,0.00,,,0.00,WUHU216HW,2013-02-03 18:48:00,
2013-02-03 11:50:00,53.3,33.5,30.02,North,0,0.0,0.0,47,0.00,,,0.00,WUHU216HW,2013-02-03 18:50:00,
2013-02-03 11:52:00,53.3,33.0,30.01,North,0,0.0,0.0,46,0.00,,,0.00,WUHU216HW,2013-02-03 18:52:00,
2013-02-03 11:54:00,53.3,33.0,30.01,North,0,0.0,0.0,46,0.00,,,0.00,WUHU216HW,2013-02-03 18:54:00,
2013-02-03 11:55:00,53.3,33.0,30.01,North,0,0.0,0.0,46,0.00,,,0.00,WUHU216HW,2013-02-03 18:55:00,
2013-02-03 11:56:00,53.5,33.0,30.01,North,0,0.0,0.0,46,0.00,,,0.00,WUHU216HW,2013-02-03 18:56:00,
2013-02-03 11:58:00,53.6,33.2,30.01,North,0,0.0,0.0,46,0.00,,,0.00,WUHU216HW,2013-02-03 18:58:00,
2013-02-03 11:59:00,53.6,33.2,30.02,North,0,0.0,0.0,46,0.00,,,0.00,WUHU216HW,2013-02-03 18:59:00,
2013-02-03 12:01:00,53.6,33.2,30.01,North,0,0.0,0.0,46,0.00,,,0.00,WUHU216HW,2013-02-03 19:01:00,
2013-02-03 12:02:00,53.8,33.4,30.01,North,0,0.0,0.0,46,0.00,,,0.00,WUHU216HW,2013-02-03 19:02:00,
2013-02-03 12:03:00,53.8,32.9,30.01,North,0,0.0,0.0,45,0.00,,,0.00,WUHU216HW,2013-02-03 19:03:00,
2013-02-03 12:05:00,54.0,33.6,30.01,North,0,0.0,0.0,46,0.00,,,0.00,WUHU216HW,2013-02-03 19:05:00,
2013-02-03 12:06:00,54.0,33.6,30.02,North,0,0.0,0.0,46,0.00,,,0.00,WUHU216HW,2013-02-03 19:06:00,
2013-02-03 12:08:00,54.2,33.8,30.01,North,0,0.0,0.0,46,0.00,,,0.00,WUHU216HW,2013-02-03 19:08:00,
2013-02-03 12:09:00,54.4,33.8,30.01,North,0,0.0,0.0,46,0.00,,,0.00,WUHU216HW,2013-02-03 19:09:00,
2013-02-03 12:10:00,54.4,33.8,30.01,North,0,0.0,0.0,46,0.00,,,0.00,WUHU216HW,2013-02-03 19:10:00,
2013-02-03 12:14:00,54.4,33.8,30.01,North,0,0.0,0.0,46,0.00,,,0.00,WUHU216HW,2013-02-03 19:14:00,
2013-02-03 12:15:00,54.5,34.0,30.01,North,0,0.0,0.0,46,0.00,,,0.00,WUHU216HW,2013-02-03 19:15:00,
2013-02-03 12:16:00,54.5,34.0,30.01,North,0,0.0,0.0,46,0.00,,,0.00,WUHU216HW,2013-02-03 19:16:00,
2013-02-03 12:19:00,54.7,34.2,30.00,North,0,0.0,0.0,46,0.00,,,0.00,WUHU216HW,2013-02-03 19:19:00,
2013-02-03 12:20:00,54.7,33.7,30.00,North,0,0.0,0.0,45,0.00,,,0.00,WUHU216HW,2013-02-03 19:20:00,
2013-02-03 12:21:00,54.7,33.7,30.00,North,0,0.0,0.0,45,0.00,,,0.00,WUHU216HW,2013-02-03 19:21:00,
2013-02-03 12:24:00,54.7,33.7,30.00,North,0,0.0,0.0,45,0.00,,,0.00,WUHU216HW,2013-02-03 19:24:00,
2013-02-03 12:26:00,54.7,33.7,29.99,North,0,0.0,0.0,45,0.00,,,0.00,WUHU216HW,2013-02-03 19:26:00,
2013-02-03 12:27:00,54.9,33.9,30.00,North,0,0.0,0.0,45,0.00,,,0.00,WUHU216HW,2013-02-03 19:27:00,
2013-02-03 12:30:00,54.9,34.4,30.00,North,0,0.0,0.0,46,0.00,,,0.00,WUHU216HW,2013-02-03 19:30:00,
2013-02-03 12:31:00,55.1,34.6,30.00,North,0,0.0,0.0,46,0.00,,,0.00,WUHU216HW,2013-02-03 19:31:00,
2013-02-03 12:32:00,55.1,34.6,30.00,North,0,0.0,0.0,46,0.00,,,0.00,WUHU216HW,2013-02-03 19:32:00,
2013-02-03 12:33:00,55.1,34.6,30.00,North,0,0.0,0.0,46,0.00,,,0.00,WUHU216HW,2013-02-03 19:33:00,
2013-02-03 12:35:00,55.1,34.6,30.00,North,0,0.0,0.0,46,0.00,,,0.00,WUHU216HW,2013-02-03 19:35:00,
2013-02-03 12:36:00,55.1,34.6,30.00,North,0,0.0,0.0,46,0.00,,,0.00,WUHU216HW,2013-02-03 19:36:00,
2013-02-03 12:38:00,55.3,34.7,29.99,North,0,0.0,0.0,46,0.00,,,0.00,WUHU216HW,2013-02-03 19:38:00,
2013-02-03 12:40:00,55.3,34.7,29.99,North,0,0.0,0.0,46,0.00,,,0.00,WUHU216HW,2013-02-03 19:40:00,
2013-02-03 12:43:00,55.4,34.8,29.99,North,0,0.0,0.0,46,0.00,,,0.00,WUHU216HW,2013-02-03 19:43:00,
2013-02-03 12:44:00,55.4,34.8,29.99,North,0,0.0,0.0,46,0.00,,,0.00,WUHU216HW,2013-02-03 19:44:00,
2013-02-03 12:46:00,55.6,35.0,29.99,North,0,0.0,0.0,46,0.00,,,0.00,WUHU216HW,2013-02-03 19:46:00,
2013-02-03 12:48:00,55.6,35.0,29.99,North,0,0.0,0.0,46,0.00,,,0.00,WUHU216HW,2013-02-03 19:48:00,
2013-02-03 12:49:00,55.6,35.0,29.99,North,0,0.0,0.0,46,0.00,,,0.00,WUHU216HW,2013-02-03 19:49:00,
2013-02-03 12:51:00,55.6,35.0,29.98,North,0,0.0,0.0,46,0.00,,,0.00,WUHU216HW,2013-02-03 19:51:00,
2013-02-03 12:53:00,55.8,35.2,29.99,North,0,0.0,0.0,46,0.00,,,0.00,WUHU216HW,2013-02-03 19:53:00,
2013-02-03 12:54:00,55.8,35.2,29.99,North,0,0.0,0.0,46,0.00,,,0.00,WUHU216HW,2013-02-03 19:54:00,
2013-02-03 12:56:00,55.8,34.7,29.99,North,0,0.0,0.0,45,0.00,,,0.00,WUHU216HW,2013-02-03 19:56:00,
2013-02-03 12:57:00,55.8,34.7,29.98,North,0,0.0,0.0,45,0.00,,,0.00,WUHU216HW,2013-02-03 19:57:00,
2013-02-03 12:58:00,55.8,34.7,29.98,North,0,0.0,0.0,45,0.00,,,0.00,WUHU216HW,2013-02-03 19:58:00,
2013-02-03 13:00:00,56.0,34.2,29.98,North,0,0.0,0.0,44,0.00,,,0.00,WUHU216HW,2013-02-03 20:00:00,
2013-02-03 13:01:00,56.0,33.7,29.98,North,0,0.0,0.0,43,0.00,,,0.00,WUHU216HW,2013-02-03 20:01:00,
2013-02-03 13:02:00,56.0,33.7,29.98,North,0,0.0,0.0,43,0.00,,,0.00,WUHU216HW,2013-02-03 20:02:00,
2013-02-03 13:04:00,56.0,33.7,29.98,North,0,0.0,0.0,43,0.00,,,0.00,WUHU216HW,2013-02-03 20:04:00,
2013-02-03 13:06:00,56.0,34.2,29.98,North,0,0.0,0.0,44,0.00,,,0.00,WUHU216HW,2013-02-03 20:06:00,
2013-02-03 13:09:00,56.2,34.4,29.98,North,0,0.0,0.0,44,0.00,,,0.00,WUHU216HW,2013-02-03 20:09:00,
2013-02-03 13:11:00,56.3,34.6,29.97,North,0,0.0,0.0,44,0.00,,,0.00,WUHU216HW,2013-02-03 20:11:00,
2013-02-03 13:12:00,56.2,34.4,29.97,North,0,0.0,0.0,44,0.00,,,0.00,WUHU216HW,2013-02-03 20:12:00,
2013-02-03 13:14:00,56.3,34.6,29.97,North,0,0.0,0.0,44,0.00,,,0.00,WUHU216HW,2013-02-03 20:14:00,
2013-02-03 13:16:00,56.5,34.2,29.97,North,0,0.0,0.0,43,0.00,,,0.00,WUHU216HW,2013-02-03 20:16:00,
2013-02-03 13:17:00,56.5,34.2,29.97,North,0,0.0,0.0,43,0.00,,,0.00,WUHU216HW,2013-02-03 20:17:00,
2013-02-03 13:19:00,56.5,34.2,29.97,North,0,0.0,0.0,43,0.00,,,0.00,WUHU216HW,2013-02-03 20:19:00,
2013-02-03 13:21:00,56.7,34.4,29.97,North,0,0.0,0.0,43,0.00,,,0.00,WUHU216HW,2013-02-03 20:21:00,
2013-02-03 13:22:00,56.7,34.4,29.96,North,0,0.0,0.0,43,0.00,,,0.00,WUHU216HW,2013-02-03 20:22:00,
2013-02-03 13:26:00,56.9,34.5,29.96,North,0,0.0,0.0,43,0.00,,,0.00,WUHU216HW,2013-02-03 20:26:00,
2013-02-03 13:27:00,57.1,34.7,29.96,North,0,0.0,0.0,43,0.00,,,0.00,WUHU216HW,2013-02-03 20:27:00,
2013-02-03 13:29:00,57.1,34.7,29.96,North,0,0.0,0.0,43,0.00,,,0.00,WUHU216HW,2013-02-03 20:29:00,
2013-02-03 13:31:00,57.2,34.8,29.96,North,0,0.0,0.0,43,0.00,,,0.00,WUHU216HW,2013-02-03 20:31:00,
2013-02-03 13:32:00,57.2,34.8,29.96,North,0,0.0,0.0,43,0.00,,,0.00,WUHU216HW,2013-02-03 20:32:00,
2013-02-03 13:33:00,57.2,34.8,29.96,North,0,0.0,0.0,43,0.00,,,0.00,WUHU216HW,2013-02-03 20:33:00,
2013-02-03 13:34:00,57.2,34.8,29.96,North,0,0.0,0.0,43,0.00,,,0.00,WUHU216HW,2013-02-03 20:34:00,
2013-02-03 13:37:00,57.2,34.8,29.95,North,0,0.0,0.0,43,0.00,,,0.00,WUHU216HW,2013-02-03 20:37:00,
2013-02-03 13:38:00,57.2,34.8,29.95,North,0,0.0,0.0,43,0.00,,,0.00,WUHU216HW,2013-02-03 20:38:00,
2013-02-03 13:39:00,57.4,35.0,29.95,North,0,0.0,0.0,43,0.00,,,0.00,WUHU216HW,2013-02-03 20:39:00,
2013-02-03 13:42:00,57.6,35.2,29.95,North,0,0.0,0.0,43,0.00,,,0.00,WUHU216HW,2013-02-03 20:42:00,
2013-02-03 13:43:00,57.6,35.2,29.95,North,0,0.0,0.0,43,0.00,,,0.00,WUHU216HW,2013-02-03 20:43:00,
2013-02-03 13:44:00,57.6,35.2,29.95,North,0,0.0,0.0,43,0.00,,,0.00,WUHU216HW,2013-02-03 20:44:00,
2013-02-03 13:48:00,57.8,35.4,29.95,North,0,0.0,0.0,43,0.00,,,0.00,WUHU216HW,2013-02-03 20:48:00,
2013-02-03 13:49:00,57.6,35.2,29.95,North,0,0.0,0.0,43,0.00,,,0.00,WUHU216HW,2013-02-03 20:49:00,
2013-02-03 13:50:00,57.8,35.4,29.95,North,0,0.0,0.0,43,0.00,,,0.00,WUHU216HW,2013-02-03 20:50:00,
2013-02-03 13:53:00,58.0,35.5,29.95,North,0,0.0,0.0,43,0.00,,,0.00,WUHU216HW,2013-02-03 20:53:00,
2013-02-03 13:54:00,57.8,35.4,29.95,North,0,0.0,0.0,43,0.00,,,0.00,WUHU216HW,2013-02-03 20:54:00,
2013-02-03 13:55:00,58.0,35.5,29.95,North,0,0.0,0.0,43,0.00,,,0.00,WUHU216HW,2013-02-03 20:55:00,
2013-02-03 13:58:00,58.0,35.5,29.95,North,0,0.0,0.0,43,0.00,,,0.00,WUHU216HW,2013-02-03 20:58:00,
2013-02-03 14:00:00,58.0,35.5,29.95,North,0,0.0,0.0,43,0.00,,,0.00,WUHU216HW,2013-02-03 21:00:00,
2013-02-03 14:01:00,58.0,34.9,29.95,North,0,0.0,0.0,42,0.00,,,0.00,WUHU216HW,2013-02-03 21:01:00,
2013-02-03 14:03:00,58.0,35.5,29.95,North,0,0.0,0.0,43,0.00,,,0.00,WUHU216HW,2013-02-03 21:03:00,
2013-02-03 14:05:00,58.0,35.5,29.95,North,0,0.0,0.0,43,0.00,,,0.00,WUHU216HW,2013-02-03 21:05:00,
2013-02-03 14:06:00,58.0,35.5,29.95,North,0,0.0,0.0,43,0.00,,,0.00,WUHU216HW,2013-02-03 21:06:00,
2013-02-03 14:07:00,58.0,35.5,29.95,North,0,0.0,0.0,43,0.00,,,0.00,WUHU216HW,2013-02-03 21:07:00,
2013-02-03 14:09:00,58.0,35.5,29.95,North,0,0.0,0.0,43,0.00,,,0.00,WUHU216HW,2013-02-03 21:09:00,
2013-02-03 14:11:00,58.0,35.5,29.95,North,0,0.0,0.0,43,0.00,,,0.00,WUHU216HW,2013-02-03 21:11:00,
2013-02-03 14:12:00,58.0,35.5,29.95,North,0,0.0,0.0,43,0.00,,,0.00,WUHU216HW,2013-02-03 21:12:00,
2013-02-03 14:14:00,58.0,35.5,29.95,North,0,0.0,0.0,43,0.00,,,0.00,WUHU216HW,2013-02-03 21:14:00,
2013-02-03 14:16:00,58.0,35.5,29.95,North,0,0.0,0.0,43,0.00,,,0.00,WUHU216HW,2013-02-03 21:16:00,
2013-02-03 14:17:00,58.1,35.6,29.95,North,0,0.0,0.0,43,0.00,,,0.00,WUHU216HW,2013-02-03 21:17:00,
2013-02-03 14:18:00,58.1,35.1,29.95,North,0,0.0,0.0,42,0.00,,,0.00,WUHU216HW,2013-02-03 21:18:00,
2013-02-03 14:19:00,58.1,35.6,29.94,North,0,0.0,0.0,43,0.00,,,0.00,WUHU216HW,2013-02-03 21:19:00,
2013-02-03 14:21:00,58.1,35.6,29.95,North,0,0.0,0.0,43,0.00,,,0.00,WUHU216HW,2013-02-03 21:21:00,
2013-02-03 14:22:00,58.1,35.6,29.95,North,0,0.0,0.0,43,0.00,,,0.00,WUHU216HW,2013-02-03 21:22:00,
2013-02-03 14:23:00,58.1,36.3,29.94,North,0,0.0,0.0,44,0.00,,,0.00,WUHU216HW,2013-02-03 21:23:00,
2013-02-03 14:25:00,58.3,36.4,29.94,North,0,0.0,0.0,44,0.00,,,0.00,WUHU216HW,2013-02-03 21:25:00,
2013-02-03 14:27:00,58.5,36.5,29.94,North,0,0.0,0.0,44,0.00,,,0.00,WUHU216HW,2013-02-03 21:27:00,
2013-02-03 14:29:00,58.7,36.7,29.94,North,0,0.0,0.0,44,0.00,,,0.00,WUHU216HW,2013-02-03 21:29:00,
2013-02-03 14:31:00,58.7,36.2,29.94,North,0,0.0,0.0,43,0.00,,,0.00,WUHU216HW,2013-02-03 21:31:00,
2013-02-03 14:32:00,58.9,36.3,29.94,North,0,0.0,0.0,43,0.00,,,0.00,WUHU216HW,2013-02-03 21:32:00,
2013-02-03 14:34:00,58.9,36.3,29.94,North,0,0.0,0.0,43,0.00,,,0.00,WUHU216HW,2013-02-03 21:34:00,
2013-02-03 14:36:00,58.9,36.3,29.94,North,0,0.0,0.0,43,0.00,,,0.00,WUHU216HW,2013-02-03 21:36:00,
2013-02-03 14:38:00,58.7,36.2,29.94,North,0,0.0,0.0,43,0.00,,,0.00,WUHU216HW,2013-02-03 21:38:00,
2013-02-03 14:39:00,58.7,36.2,29.94,North,0,0.0,0.0,43,0.00,,,0.00,WUHU216HW,2013-02-03 21:39:00,
2013-02-03 14:41:00,58.7,36.2,29.94,North,0,0.0,0.0,43,0.00,,,0.00,WUHU216HW,2013-02-03 21:41:00,
2013-02-03 14:44:00,58.9,36.3,29.93,North,0,0.0,0.0,43,0.00,,,0.00,WUHU216HW,2013-02-03 21:44:00,
2013-02-03 14:45:00,58.9,36.3,29.93,North,0,0.0,0.0,43,0.00,,,0.00,WUHU216HW,2013-02-03 21:45:00,
2013-02-03 14:48:00,58.9,35.7,29.93,North,0,0.0,0.0,42,0.00,,,0.00,WUHU216HW,2013-02-03 21:48:00,
2013-02-03 14:49:00,58.9,35.7,29.93,North,0,0.0,0.0,42,0.00,,,0.00,WUHU216HW,2013-02-03 21:49:00,
2013-02-03 14:50:00,58.9,35.7,29.93,North,0,0.0,0.0,42,0.00,,,0.00,WUHU216HW,2013-02-03 21:50:00,
2013-02-03 14:54:00,58.9,35.7,29.93,North,0,0.0,0.0,42,0.00,,,0.00,WUHU216HW,2013-02-03 21:54:00,
2013-02-03 14:56:00,58.9,35.7,29.93,North,0,0.0,0.0,42,0.00,,,0.00,WUHU216HW,2013-02-03 21:56:00,
2013-02-03 14:57:00,58.9,35.7,29.93,North,0,0.0,0.0,42,0.00,,,0.00,WUHU216HW,2013-02-03 21:57:00,
2013-02-03 15:00:00,59.0,35.9,29.93,North,0,0.0,0.0,42,0.00,,,0.00,WUHU216HW,2013-02-03 22:00:00,
2013-02-03 15:01:00,59.0,35.9,29.93,North,0,0.0,0.0,42,0.00,,,0.00,WUHU216HW,2013-02-03 22:01:00,
2013-02-03 15:04:00,59.0,35.3,29.93,North,0,0.0,0.0,41,0.00,,,0.00,WUHU216HW,2013-02-03 22:04:00,
2013-02-03 15:05:00,59.0,35.3,29.93,North,0,0.0,0.0,41,0.00,,,0.00,WUHU216HW,2013-02-03 22:05:00,
2013-02-03 15:06:00,59.0,35.3,29.93,North,0,0.0,0.0,41,0.00,,,0.00,WUHU216HW,2013-02-03 22:06:00,
2013-02-03 15:07:00,59.0,35.3,29.93,North,0,0.0,0.0,41,0.00,,,0.00,WUHU216HW,2013-02-03 22:07:00,
2013-02-03 15:09:00,59.0,35.3,29.93,North,0,0.0,0.0,41,0.00,,,0.00,WUHU216HW,2013-02-03 22:09:00,
2013-02-03 15:10:00,59.0,35.3,29.93,North,0,0.0,0.0,41,0.00,,,0.00,WUHU216HW,2013-02-03 22:10:00,
2013-02-03 15:11:00,59.0,35.3,29.93,North,0,0.0,0.0,41,0.00,,,0.00,WUHU216HW,2013-02-03 22:11:00,
2013-02-03 15:12:00,59.0,35.9,29.93,North,0,0.0,0.0,42,0.00,,,0.00,WUHU216HW,2013-02-03 22:12:00,
2013-02-03 15:14:00,59.0,35.3,29.93,North,0,0.0,0.0,41,0.00,,,0.00,WUHU216HW,2013-02-03 22:14:00,
2013-02-03 15:16:00,59.0,35.3,29.93,North,0,0.0,0.0,41,0.00,,,0.00,WUHU216HW,2013-02-03 22:16:00,
2013-02-03 15:18:00,59.0,35.3,29.93,North,0,0.0,0.0,41,0.00,,,0.00,WUHU216HW,2013-02-03 22:18:00,
2013-02-03 15:19:00,59.0,35.3,29.93,North,0,0.0,0.0,41,0.00,,,0.00,WUHU216HW,2013-02-03 22:19:00,
2013-02-03 15:21:00,59.2,35.5,29.93,North,0,0.0,0.0,41,0.00,,,0.00,WUHU216HW,2013-02-03 22:21:00,
2013-02-03 15:22:00,59.2,35.5,29.93,North,0,0.0,0.0,41,0.00,,,0.00,WUHU216HW,2013-02-03 22:22:00,
2013-02-03 15:23:00,59.2,36.1,29.93,North,0,0.0,0.0,42,0.00,,,0.00,WUHU216HW,2013-02-03 22:23:00,
2013-02-03 15:24:00,59.2,36.1,29.93,North,0,0.0,0.0,42,0.00,,,0.00,WUHU216HW,2013-02-03 22:24:00,
2013-02-03 15:27:00,59.2,36.1,29.93,North,0,0.0,0.0,42,0.00,,,0.00,WUHU216HW,2013-02-03 22:27:00,
2013-02-03 15:28:00,59.2,36.1,29.93,North,0,0.0,0.0,42,0.00,,,0.00,WUHU216HW,2013-02-03 22:28:00,
2013-02-03 15:30:00,59.2,36.1,29.93,North,0,0.0,0.0,42,0.00,,,0.00,WUHU216HW,2013-02-03 22:30:00,
2013-02-03 15:32:00,59.2,36.1,29.93,North,0,0.0,0.0,42,0.00,,,0.00,WUHU216HW,2013-02-03 22:32:00,
2013-02-03 15:34:00,59.2,35.5,29.92,North,0,0.0,0.0,41,0.00,,,0.00,WUHU216HW,2013-02-03 22:34:00,
2013-02-03 15:35:00,59.2,36.1,29.92,North,0,0.0,0.0,42,0.00,,,0.00,WUHU216HW,2013-02-03 22:35:00,
2013-02-03 15:37:00,59.2,35.5,29.92,North,0,0.0,0.0,41,0.00,,,0.00,WUHU216HW,2013-02-03 22:37:00,
2013-02-03 15:39:00,59.2,35.5,29.93,North,0,0.0,0.0,41,0.00,,,0.00,WUHU216HW,2013-02-03 22:39:00,
2013-02-03 15:40:00,59.2,36.1,29.93,North,0,0.0,0.0,42,0.00,,,0.00,WUHU216HW,2013-02-03 22:40:00,
2013-02-03 15:42:00,59.2,36.1,29.93,North,0,0.0,0.0,42,0.00,,,0.00,WUHU216HW,2013-02-03 22:42:00,
2013-02-03 15:44:00,59.4,36.2,29.93,North,0,0.0,0.0,42,0.00,,,0.00,WUHU216HW,2013-02-03 22:44:00,
2013-02-03 15:46:00,59.2,35.5,29.93,North,0,0.0,0.0,41,0.00,,,0.00,WUHU216HW,2013-02-03 22:46:00,
2013-02-03 15:48:00,59.2,35.5,29.93,North,0,0.0,0.0,41,0.00,,,0.00,WUHU216HW,2013-02-03 22:48:00,
2013-02-03 15:49:00,59.4,35.6,29.93,North,0,0.0,0.0,41,0.00,,,0.00,WUHU216HW,2013-02-03 22:49:00,
2013-02-03 15:52:00,59.4,35.6,29.93,North,0,0.0,0.0,41,0.00,,,0.00,WUHU216HW,2013-02-03 22:52:00,
2013-02-03 15:54:00,59.2,36.1,29.93,North,0,0.0,0.0,42,0.00,,,0.00,WUHU216HW,2013-02-03 22:54:00,
2013-02-03 15:55:00,59.2,35.5,29.93,North,0,0.0,0.0,41,0.00,,,0.00,WUHU216HW,2013-02-03 22:55:00,
2013-02-03 15:57:00,59.2,35.5,29.93,North,0,0.0,0.0,41,0.00,,,0.00,WUHU216HW,2013-02-03 22:57:00,
2013-02-03 15:59:00,59.2,35.5,29.93,North,0,0.0,0.0,41,0.00,,,0.00,WUHU216HW,2013-02-03 22:59:00,
2013-02-03 16:00:00,59.4,36.2,29.93,North,0,0.0,0.0,42,0.00,,,0.00,WUHU216HW,2013-02-03 23:00:00,
2013-02-03 16:01:00,59.2,36.1,29.93,North,0,0.0,0.0,42,0.00,,,0.00,WUHU216HW,2013-02-03 23:01:00,
2013-02-03 16:02:00,59.4,36.2,29.93,North,0,0.0,0.0,42,0.00,,,0.00,WUHU216HW,2013-02-03 23:02:00,
2013-02-03 16:05:00,59.2,36.1,29.93,North,0,0.0,0.0,42,0.00,,,0.00,WUHU216HW,2013-02-03 23:05:00,
2013-02-03 16:06:00,59.2,36.1,29.93,North,0,0.0,0.0,42,0.00,,,0.00,WUHU216HW,2013-02-03 23:06:00,
2013-02-03 16:07:00,59.2,36.1,29.93,North,0,0.0,0.0,42,0.00,,,0.00,WUHU216HW,2013-02-03 23:07:00,
2013-02-03 16:10:00,59.2,35.5,29.93,North,0,0.0,0.0,41,0.00,,,0.00,WUHU216HW,2013-02-03 23:10:00,
2013-02-03 16:12:00,59.0,35.3,29.92,North,0,0.0,0.0,41,0.00,,,0.00,WUHU216HW,2013-02-03 23:12:00,
2013-02-03 16:13:00,59.0,35.3,29.93,North,0,0.0,0.0,41,0.00,,,0.00,WUHU216HW,2013-02-03 23:13:00,
2013-02-03 16:16:00,59.0,35.3,29.93,North,0,0.0,0.0,41,0.00,,,0.00,WUHU216HW,2013-02-03 23:16:00,
2013-02-03 16:17:00,59.0,35.3,29.93,North,0,0.0,0.0,41,0.00,,,0.00,WUHU216HW,2013-02-03 23:17:00,
2013-02-03 16:19:00,59.0,35.9,29.93,North,0,0.0,0.0,42,0.00,,,0.00,WUHU216HW,2013-02-03 23:19:00,
2013-02-03 16:21:00,59.0,35.3,29.93,North,0,0.0,0.0,41,0.00,,,0.00,WUHU216HW,2013-02-03 23:21:00,
2013-02-03 16:22:00,59.0,35.3,29.93,North,0,0.0,0.0,41,0.00,,,0.00,WUHU216HW,2013-02-03 23:22:00,
2013-02-03 16:23:00,59.0,35.3,29.93,North,0,0.0,0.0,41,0.00,,,0.00,WUHU216HW,2013-02-03 23:23:00,
2013-02-03 16:24:00,59.0,35.3,29.93,North,0,0.0,0.0,41,0.00,,,0.00,WUHU216HW,2013-02-03 23:24:00,
2013-02-03 16:27:00,59.0,35.3,29.93,North,0,0.0,0.0,41,0.00,,,0.00,WUHU216HW,2013-02-03 23:27:00,
2013-02-03 16:28:00,58.9,35.2,29.92,North,0,0.0,0.0,41,0.00,,,0.00,WUHU216HW,2013-02-03 23:28:00,
2013-02-03 16:29:00,58.9,35.2,29.92,North,0,0.0,0.0,41,0.00,,,0.00,WUHU216HW,2013-02-03 23:29:00,
2013-02-03 16:32:00,59.0,35.3,29.92,North,0,0.0,0.0,41,0.00,,,0.00,WUHU216HW,2013-02-03 23:32:00,
2013-02-03 16:33:00,58.9,35.2,29.92,North,0,0.0,0.0,41,0.00,,,0.00,WUHU216HW,2013-02-03 23:33:00,
2013-02-03 16:35:00,58.7,35.0,29.92,North,0,0.0,0.0,41,0.00,,,0.00,WUHU216HW,2013-02-03 23:35:00,
2013-02-03 16:37:00,58.7,35.0,29.92,North,0,0.0,0.0,41,0.00,,,0.00,WUHU216HW,2013-02-03 23:37:00,
2013-02-03 16:38:00,58.7,35.0,29.93,North,0,0.0,0.0,41,0.00,,,0.00,WUHU216HW,2013-02-03 23:38:00,
2013-02-03 16:39:00,58.7,35.0,29.93,North,0,0.0,0.0,41,0.00,,,0.00,WUHU216HW,2013-02-03 23:39:00,
2013-02-03 16:40:00,58.7,35.0,29.93,North,0,0.0,0.0,41,0.00,,,0.00,WUHU216HW,2013-02-03 23:40:00,
2013-02-03 16:42:00,58.7,35.0,29.93,North,0,0.0,0.0,41,0.00,,,0.00,WUHU216HW,2013-02-03 23:42:00,
2013-02-03 16:43:00,58.7,35.0,29.93,North,0,0.0,0.0,41,0.00,,,0.00,WUHU216HW,2013-02-03 23:43:00,
2013-02-03 16:44:00,58.7,35.0,29.93,North,0,0.0,0.0,41,0.00,,,0.00,WUHU216HW,2013-02-03 23:44:00,
2013-02-03 16:45:00,58.7,35.6,29.93,North,0,0.0,0.0,42,0.00,,,0.00,WUHU216HW,2013-02-03 23:45:00,
2013-02-03 16:47:00,58.7,35.6,29.93,North,0,0.0,0.0,42,0.00,,,0.00,WUHU216HW,2013-02-03 23:47:00,
2013-02-03 16:48:00,58.7,35.6,29.93,North,0,0.0,0.0,42,0.00,,,0.00,WUHU216HW,2013-02-03 23:48:00,
2013-02-03 16:49:00,58.7,35.0,29.93,North,0,0.0,0.0,41,0.00,,,0.00,WUHU216HW,2013-02-03 23:49:00,
2013-02-03 16:51:00,58.7,35.6,29.93,North,0,0.0,0.0,42,0.00,,,0.00,WUHU216HW,2013-02-03 23:51:00,
2013-02-03 16:53:00,58.7,35.6,29.93,North,0,0.0,0.0,42,0.00,,,0.00,WUHU216HW,2013-02-03 23:53:00,
2013-02-03 16:54:00,58.7,35.0,29.93,North,0,0.0,0.0,41,0.00,,,0.00,WUHU216HW,2013-02-03 23:54:00,
2013-02-03 16:57:00,58.7,36.2,29.93,North,0,0.0,0.0,43,0.00,,,0.00,WUHU216HW,2013-02-03 23:57:00,
2013-02-03 16:59:00,58.7,36.7,29.93,North,0,0.0,0.0,44,0.00,,,0.00,WUHU216HW,2013-02-03 23:59:00,
2013-02-03 17:00:00,58.7,37.3,29.93,North,0,0.0,0.0,45,0.00,,,0.00,WUHU216HW,2013-02-04 00:00:00,
2013-02-03 17:03:00,58.3,37.0,29.93,North,0,0.0,0.0,45,0.00,,,0.00,WUHU216HW,2013-02-04 00:03:00,
2013-02-03 17:04:00,58.3,37.0,29.94,North,0,0.0,0.0,45,0.00,,,0.00,WUHU216HW,2013-02-04 00:04:00,
2013-02-03 17:05:00,58.1,37.4,29.94,North,0,0.0,0.0,46,0.00,,,0.00,WUHU216HW,2013-02-04 00:05:00,
2013-02-03 17:06:00,58.1,36.8,29.94,North,0,0.0,0.0,45,0.00,,,0.00,WUHU216HW,2013-02-04 00:06:00,
2013-02-03 17:08:00,58.1,37.4,29.94,North,0,0.0,0.0,46,0.00,,,0.00,WUHU216HW,2013-02-04 00:08:00,
2013-02-03 17:10:00,58.0,37.3,29.94,North,0,0.0,0.0,46,0.00,,,0.00,WUHU216HW,2013-02-04 00:10:00,
2013-02-03 17:13:00,58.0,38.3,29.94,North,0,0.0,0.0,48,0.00,,,0.00,WUHU216HW,2013-02-04 00:13:00,
2013-02-03 17:15:00,57.8,38.8,29.94,North,0,0.0,0.0,49,0.00,,,0.00,WUHU216HW,2013-02-04 00:15:00,
2013-02-03 17:16:00,57.8,38.8,29.94,North,0,0.0,0.0,49,0.00,,,0.00,WUHU216HW,2013-02-04 00:16:00,
2013-02-03 17:18:00,57.4,37.9,29.94,North,0,0.0,0.0,48,0.00,,,0.00,WUHU216HW,2013-02-04 00:18:00,
2013-02-03 17:20:00,57.2,38.4,29.94,North,0,0.0,0.0,49,0.00,,,0.00,WUHU216HW,2013-02-04 00:20:00,
2013-02-03 17:22:00,57.2,38.4,29.94,North,0,0.0,0.0,49,0.00,,,0.00,WUHU216HW,2013-02-04 00:22:00,
2013-02-03 17:23:00,57.1,38.7,29.94,North,0,0.0,0.0,50,0.00,,,0.00,WUHU216HW,2013-02-04 00:23:00,
2013-02-03 17:24:00,57.1,38.7,29.94,North,0,0.0,0.0,50,0.00,,,0.00,WUHU216HW,2013-02-04 00:24:00,
2013-02-03 17:26:00,57.1,38.7,29.94,North,0,0.0,0.0,50,0.00,,,0.00,WUHU216HW,2013-02-04 00:26:00,
2013-02-03 17:27:00,56.9,39.0,29.95,North,0,0.0,0.0,51,0.00,,,0.00,WUHU216HW,2013-02-04 00:27:00,
2013-02-03 17:29:00,56.9,39.4,29.94,North,0,0.0,0.0,52,0.00,,,0.00,WUHU216HW,2013-02-04 00:29:00,
2013-02-03 17:31:00,56.7,39.2,29.94,North,0,0.0,0.0,52,0.00,,,0.00,WUHU216HW,2013-02-04 00:31:00,
2013-02-03 17:33:00,56.7,38.8,29.94,North,0,0.0,0.0,51,0.00,,,0.00,WUHU216HW,2013-02-04 00:33:00,
2013-02-03 17:34:00,56.5,38.6,29.94,North,0,0.0,0.0,51,0.00,,,0.00,WUHU216HW,2013-02-04 00:34:00,
2013-02-03 17:36:00,56.5,38.6,29.94,North,0,0.0,0.0,51,0.00,,,0.00,WUHU216HW,2013-02-04 00:36:00,
2013-02-03 17:39:00,56.3,38.9,29.94,North,0,0.0,0.0,52,0.00,,,0.00,WUHU216HW,2013-02-04 00:39:00,
2013-02-03 17:40:00,56.3,38.9,29.95,North,0,0.0,0.0,52,0.00,,,0.00,WUHU216HW,2013-02-04 00:40:00,
2013-02-03 17:41:00,56.2,38.3,29.94,North,0,0.0,0.0,51,0.00,,,0.00,WUHU216HW,2013-02-04 00:41:00,
2013-02-03 17:44:00,56.0,38.5,29.94,North,0,0.0,0.0,52,0.00,,,0.00,WUHU216HW,2013-02-04 00:44:00,
2013-02-03 17:45:00,55.8,38.3,29.94,North,0,0.0,0.0,52,0.00,,,0.00,WUHU216HW,2013-02-04 00:45:00,
2013-02-03 17:46:00,55.8,38.3,29.94,North,0,0.0,0.0,52,0.00,,,0.00,WUHU216HW,2013-02-04 00:46:00,
2013-02-03 17:47:00,55.8,38.3,29.94,North,0,0.0,0.0,52,0.00,,,0.00,WUHU216HW,2013-02-04 00:47:00,
2013-02-03 17:50:00,55.6,38.2,29.94,North,0,0.0,0.0,52,0.00,,,0.00,WUHU216HW,2013-02-04 00:50:00,
2013-02-03 17:52:00,55.6,38.2,29.94,North,0,0.0,0.0,52,0.00,,,0.00,WUHU216HW,2013-02-04 00:52:00,
2013-02-03 17:53:00,55.6,38.2,29.94,North,0,0.0,0.0,52,0.00,,,0.00,WUHU216HW,2013-02-04 00:53:00,
2013-02-03 17:55:00,55.6,38.2,29.94,North,0,0.0,0.0,52,0.00,,,0.00,WUHU216HW,2013-02-04 00:55:00,
2013-02-03 17:56:00,55.6,38.2,29.94,North,0,0.0,0.0,52,0.00,,,0.00,WUHU216HW,2013-02-04 00:56:00,
2013-02-03 17:57:00,55.6,38.2,29.94,North,0,0.0,0.0,52,0.00,,,0.00,WUHU216HW,2013-02-04 00:57:00,
2013-02-03 17:59:00,55.4,38.0,29.94,North,0,0.0,0.0,52,0.00,,,0.00,WUHU216HW,2013-02-04 00:59:00,
2013-02-03 18:01:00,55.4,38.0,29.95,North,0,0.0,0.0,52,0.00,,,0.00,WUHU216HW,2013-02-04 01:01:00,
2013-02-03 18:04:00,55.4,38.0,29.95,North,0,0.0,0.0,52,0.00,,,0.00,WUHU216HW,2013-02-04 01:04:00,
2013-02-03 18:06:00,55.4,38.0,29.95,North,0,0.0,0.0,52,0.00,,,0.00,WUHU216HW,2013-02-04 01:06:00,
2013-02-03 18:09:00,55.4,38.0,29.95,North,0,0.0,0.0,52,0.00,,,0.00,WUHU216HW,2013-02-04 01:09:00,
2013-02-03 18:10:00,55.4,38.0,29.95,North,0,0.0,0.0,52,0.00,,,0.00,WUHU216HW,2013-02-04 01:10:00,
2013-02-03 18:11:00,55.4,38.0,29.95,North,0,0.0,0.0,52,0.00,,,0.00,WUHU216HW,2013-02-04 01:11:00,
2013-02-03 18:14:00,55.6,38.2,29.95,North,0,0.0,0.0,52,0.00,,,0.00,WUHU216HW,2013-02-04 01:14:00,
2013-02-03 18:16:00,55.6,38.2,29.95,North,0,0.0,0.0,52,0.00,,,0.00,WUHU216HW,2013-02-04 01:16:00,
2013-02-03 18:17:00,55.6,38.2,29.95,North,0,0.0,0.0,52,0.00,,,0.00,WUHU216HW,2013-02-04 01:17:00,
2013-02-03 18:20:00,55.6,38.2,29.95,North,0,0.0,0.0,52,0.00,,,0.00,WUHU216HW,2013-02-04 01:20:00,
2013-02-03 18:21:00,55.6,38.2,29.95,North,0,0.0,0.0,52,0.00,,,0.00,WUHU216HW,2013-02-04 01:21:00,
2013-02-03 18:22:00,55.6,38.2,29.95,North,0,0.0,0.0,52,0.00,,,0.00,WUHU216HW,2013-02-04 01:22:00,
2013-02-03 18:25:00,55.6,38.2,29.95,North,0,0.0,0.0,52,0.00,,,0.00,WUHU216HW,2013-02-04 01:25:00,
2013-02-03 18:26:00,55.6,38.2,29.95,North,0,0.0,0.0,52,0.00,,,0.00,WUHU216HW,2013-02-04 01:26:00,
2013-02-03 18:27:00,55.6,38.7,29.95,North,0,0.0,0.0,53,0.00,,,0.00,WUHU216HW,2013-02-04 01:27:00,
2013-02-03 18:30:00,55.6,38.2,29.96,North,0,0.0,0.0,52,0.00,,,0.00,WUHU216HW,2013-02-04 01:30:00,
2013-02-03 18:31:00,55.6,38.2,29.96,North,0,0.0,0.0,52,0.00,,,0.00,WUHU216HW,2013-02-04 01:31:00,
2013-02-03 18:32:00,55.6,38.2,29.95,North,0,0.0,0.0,52,0.00,,,0.00,WUHU216HW,2013-02-04 01:32:00,
2013-02-03 18:33:00,55.6,38.2,29.95,North,0,0.0,0.0,52,0.00,,,0.00,WUHU216HW,2013-02-04 01:33:00,
2013-02-03 18:36:00,55.6,38.2,29.96,North,0,0.0,0.0,52,0.00,,,0.00,WUHU216HW,2013-02-04 01:36:00,
2013-02-03 18:37:00,55.4,38.0,29.96,North,0,0.0,0.0,52,0.00,,,0.00,WUHU216HW,2013-02-04 01:37:00,
2013-02-03 18:39:00,55.4,38.5,29.96,North,0,0.0,0.0,53,0.00,,,0.00,WUHU216HW,2013-02-04 01:39:00,
2013-02-03 18:42:00,55.4,38.5,29.96,North,0,0.0,0.0,53,0.00,,,0.00,WUHU216HW,2013-02-04 01:42:00,
2013-02-03 18:43:00,55.4,38.5,29.96,North,0,0.0,0.0,53,0.00,,,0.00,WUHU216HW,2013-02-04 01:43:00,
2013-02-03 18:45:00,55.3,38.8,29.96,North,0,0.0,0.0,54,0.00,,,0.00,WUHU216HW,2013-02-04 01:45:00,
2013-02-03 18:47:00,55.1,38.6,29.96,North,0,0.0,0.0,54,0.00,,,0.00,WUHU216HW,2013-02-04 01:47:00,
2013-02-03 18:48:00,55.1,38.6,29.96,North,0,0.0,0.0,54,0.00,,,0.00,WUHU216HW,2013-02-04 01:48:00,
2013-02-03 18:50:00,55.1,38.6,29.96,North,0,0.0,0.0,54,0.00,,,0.00,WUHU216HW,2013-02-04 01:50:00,
2013-02-03 18:51:00,55.1,38.6,29.96,North,0,0.0,0.0,54,0.00,,,0.00,WUHU216HW,2013-02-04 01:51:00,
2013-02-03 18:52:00,55.1,38.6,29.96,North,0,0.0,0.0,54,0.00,,,0.00,WUHU216HW,2013-02-04 01:52:00,
2013-02-03 18:53:00,55.1,38.6,29.96,North,0,0.0,0.0,54,0.00,,,0.00,WUHU216HW,2013-02-04 01:53:00,
2013-02-03 18:55:00,55.1,38.6,29.96,North,0,0.0,0.0,54,0.00,,,0.00,WUHU216HW,2013-02-04 01:55:00,
2013-02-03 18:56:00,55.1,38.6,29.96,North,0,0.0,0.0,54,0.00,,,0.00,WUHU216HW,2013-02-04 01:56:00,
2013-02-03 18:58:00,54.9,38.4,29.96,North,0,0.0,0.0,54,0.00,,,0.00,WUHU216HW,2013-02-04 01:58:00,
2013-02-03 19:01:00,54.9,39.0,29.96,North,0,0.0,0.0,55,0.00,,,0.00,WUHU216HW,2013-02-04 02:01:00,
2013-02-03 19:02:00,54.9,39.0,29.96,North,0,0.0,0.0,55,0.00,,,0.00,WUHU216HW,2013-02-04 02:02:00,
2013-02-03 19:03:00,54.9,39.0,29.96,North,0,0.0,0.0,55,0.00,,,0.00,WUHU216HW,2013-02-04 02:03:00,
2013-02-03 19:07:00,54.7,38.8,29.96,North,0,0.0,0.0,55,0.00,,,0.00,WUHU216HW,2013-02-04 02:07:00,
2013-02-03 19:08:00,54.5,38.6,29.96,North,0,0.0,0.0,55,0.00,,,0.00,WUHU216HW,2013-02-04 02:08:00,
2013-02-03 19:10:00,54.5,38.6,29.96,North,0,0.0,0.0,55,0.00,,,0.00,WUHU216HW,2013-02-04 02:10:00,
2013-02-03 19:12:00,54.4,38.4,29.96,North,0,0.0,0.0,55,0.00,,,0.00,WUHU216HW,2013-02-04 02:12:00,
2013-02-03 19:13:00,54.4,38.4,29.96,North,0,0.0,0.0,55,0.00,,,0.00,WUHU216HW,2013-02-04 02:13:00,
2013-02-03 19:14:00,54.4,38.4,29.96,North,0,0.0,0.0,55,0.00,,,0.00,WUHU216HW,2013-02-04 02:14:00,
2013-02-03 19:16:00,54.2,37.8,29.96,North,0,0.0,0.0,54,0.00,,,0.00,WUHU216HW,2013-02-04 02:16:00,
2013-02-03 19:18:00,54.2,38.3,29.96,North,0,0.0,0.0,55,0.00,,,0.00,WUHU216HW,2013-02-04 02:18:00,
2013-02-03 19:19:00,54.0,37.6,29.96,North,0,0.0,0.0,54,0.00,,,0.00,WUHU216HW,2013-02-04 02:19:00,
2013-02-03 19:21:00,54.0,38.2,29.96,North,0,0.0,0.0,55,0.00,,,0.00,WUHU216HW,2013-02-04 02:21:00,
2013-02-03 19:24:00,54.0,38.2,29.96,North,0,0.0,0.0,55,0.00,,,0.00,WUHU216HW,2013-02-04 02:24:00,
2013-02-03 19:28:00,54.0,38.2,29.96,North,0,0.0,0.0,55,0.00,,,0.00,WUHU216HW,2013-02-04 02:28:00,
2013-02-03 19:29:00,54.0,38.2,29.96,North,0,0.0,0.0,55,0.00,,,0.00,WUHU216HW,2013-02-04 02:29:00,
2013-02-03 19:30:00,54.0,38.2,29.96,North,0,0.0,0.0,55,0.00,,,0.00,WUHU216HW,2013-02-04 02:30:00,
2013-02-03 19:33:00,53.6,38.7,29.96,North,0,0.0,0.0,57,0.00,,,0.00,WUHU216HW,2013-02-04 02:33:00,
2013-02-03 19:35:00,53.6,38.7,29.96,North,0,0.0,0.0,57,0.00,,,0.00,WUHU216HW,2013-02-04 02:35:00,
2013-02-03 19:39:00,53.5,38.5,29.96,North,0,0.0,0.0,57,0.00,,,0.00,WUHU216HW,2013-02-04 02:39:00,
2013-02-03 19:40:00,53.3,38.9,29.96,North,0,0.0,0.0,58,0.00,,,0.00,WUHU216HW,2013-02-04 02:40:00,
2013-02-03 19:41:00,53.3,38.9,29.96,North,0,0.0,0.0,58,0.00,,,0.00,WUHU216HW,2013-02-04 02:41:00,
2013-02-03 19:44:00,53.1,39.2,29.96,North,0,0.0,0.0,59,0.00,,,0.00,WUHU216HW,2013-02-04 02:44:00,
2013-02-03 19:45:00,53.1,38.7,29.96,North,0,0.0,0.0,58,0.00,,,0.00,WUHU216HW,2013-02-04 02:45:00,
2013-02-03 19:46:00,52.9,38.5,29.96,North,0,0.0,0.0,58,0.00,,,0.00,WUHU216HW,2013-02-04 02:46:00,
2013-02-03 19:50:00,52.9,38.5,29.96,North,0,0.0,0.0,58,0.00,,,0.00,WUHU216HW,2013-02-04 02:50:00,
2013-02-03 19:51:00,52.9,38.5,29.96,North,0,0.0,0.0,58,0.00,,,0.00,WUHU216HW,2013-02-04 02:51:00,
2013-02-03 19:53:00,52.9,38.5,29.96,North,0,0.0,0.0,58,0.00,,,0.00,WUHU216HW,2013-02-04 02:53:00,
2013-02-03 19:55:00,53.1,38.7,29.96,North,0,0.0,0.0,58,0.00,,,0.00,WUHU216HW,2013-02-04 02:55:00,
2013-02-03 19:56:00,53.1,38.7,29.97,North,0,0.0,0.0,58,0.00,,,0.00,WUHU216HW,2013-02-04 02:56:00,
2013-02-03 19:59:00,53.1,38.7,29.97,North,0,0.0,0.0,58,0.00,,,0.00,WUHU216HW,2013-02-04 02:59:00,
2013-02-03 20:00:00,53.1,39.2,29.97,North,0,0.0,0.0,59,0.00,,,0.00,WUHU216HW,2013-02-04 03:00:00,
2013-02-03 20:01:00,53.1,39.2,29.97,North,0,0.0,0.0,59,0.00,,,0.00,WUHU216HW,2013-02-04 03:01:00,
2013-02-03 20:02:00,53.1,39.2,29.97,North,0,0.0,0.0,59,0.00,,,0.00,WUHU216HW,2013-02-04 03:02:00,
2013-02-03 20:06:00,52.9,39.4,29.97,North,0,0.0,0.0,60,0.00,,,0.00,WUHU216HW,2013-02-04 03:06:00,
2013-02-03 20:07:00,52.9,39.4,29.97,North,0,0.0,0.0,60,0.00,,,0.00,WUHU216HW,2013-02-04 03:07:00,
2013-02-03 20:11:00,52.7,39.6,29.97,North,0,0.0,0.0,61,0.00,,,0.00,WUHU216HW,2013-02-04 03:11:00,
2013-02-03 20:12:00,52.7,40.1,29.97,North,0,0.0,0.0,62,0.00,,,0.00,WUHU216HW,2013-02-04 03:12:00,
2013-02-03 20:16:00,52.6,40.3,29.98,North,0,0.0,0.0,63,0.00,,,0.00,WUHU216HW,2013-02-04 03:16:00,
2013-02-03 20:17:00,52.4,40.2,29.98,North,0,0.0,0.0,63,0.00,,,0.00,WUHU216HW,2013-02-04 03:17:00,
2013-02-03 20:18:00,52.4,41.0,29.98,North,0,0.0,0.0,65,0.00,,,0.00,WUHU216HW,2013-02-04 03:18:00,
2013-02-03 20:21:00,52.2,40.0,29.98,North,0,0.0,0.0,63,0.00,,,0.00,WUHU216HW,2013-02-04 03:21:00,
2013-02-03 20:22:00,52.2,40.0,29.98,North,0,0.0,0.0,63,0.00,,,0.00,WUHU216HW,2013-02-04 03:22:00,
2013-02-03 20:23:00,52.2,40.0,29.98,North,0,0.0,0.0,63,0.00,,,0.00,WUHU216HW,2013-02-04 03:23:00,
2013-02-03 20:27:00,52.2,40.0,29.98,North,0,0.0,0.0,63,0.00,,,0.00,WUHU216HW,2013-02-04 03:27:00,
2013-02-03 20:28:00,52.4,40.2,29.98,North,0,0.0,0.0,63,0.00,,,0.00,WUHU216HW,2013-02-04 03:28:00,
2013-02-03 20:33:00,52.4,40.2,29.97,North,0,0.0,0.0,63,0.00,,,0.00,WUHU216HW,2013-02-04 03:33:00,
2013-02-03 20:34:00,52.4,40.5,29.97,North,0,0.0,0.0,64,0.00,,,0.00,WUHU216HW,2013-02-04 03:34:00,
2013-02-03 20:39:00,52.2,40.3,29.98,North,0,0.0,0.0,64,0.00,,,0.00,WUHU216HW,2013-02-04 03:39:00,
2013-02-03 20:40:00,52.4,40.2,29.98,North,0,0.0,0.0,63,0.00,,,0.00,WUHU216HW,2013-02-04 03:40:00,
2013-02-03 20:44:00,52.4,40.5,29.98,North,0,0.0,0.0,64,0.00,,,0.00,WUHU216HW,2013-02-04 03:44:00,
2013-02-03 20:45:00,52.4,40.5,29.98,North,0,0.0,0.0,64,0.00,,,0.00,WUHU216HW,2013-02-04 03:45:00,
2013-02-03 20:49:00,52.2,40.3,29.98,North,0,0.0,0.0,64,0.00,,,0.00,WUHU216HW,2013-02-04 03:49:00,
2013-02-03 20:50:00,52.2,40.3,29.97,North,0,0.0,0.0,64,0.00,,,0.00,WUHU216HW,2013-02-04 03:50:00,
2013-02-03 20:51:00,52.2,40.3,29.97,North,0,0.0,0.0,64,0.00,,,0.00,WUHU216HW,2013-02-04 03:51:00,
2013-02-03 20:54:00,52.2,40.3,29.98,North,0,0.0,0.0,64,0.00,,,0.00,WUHU216HW,2013-02-04 03:54:00,
2013-02-03 20:55:00,52.2,40.3,29.97,North,0,0.0,0.0,64,0.00,,,0.00,WUHU216HW,2013-02-04 03:55:00,
2013-02-03 20:56:00,52.2,40.3,29.97,North,0,0.0,0.0,64,0.00,,,0.00,WUHU216HW,2013-02-04 03:56:00,
2013-02-03 20:59:00,52.2,40.3,29.97,North,0,0.0,0.0,64,0.00,,,0.00,WUHU216HW,2013-02-04 03:59:00,
2013-02-03 21:00:00,52.2,40.3,29.97,North,0,0.0,0.0,64,0.00,,,0.00,WUHU216HW,2013-02-04 04:00:00,
2013-02-03 21:02:00,52.2,40.3,29.97,North,0,0.0,0.0,64,0.00,,,0.00,WUHU216HW,2013-02-04 04:02:00,
2013-02-03 21:03:00,52.2,40.3,29.97,North,0,0.0,0.0,64,0.00,,,0.00,WUHU216HW,2013-02-04 04:03:00,
2013-02-03 21:04:00,52.2,40.3,29.97,North,0,0.0,0.0,64,0.00,,,0.00,WUHU216HW,2013-02-04 04:04:00,
2013-02-03 21:07:00,52.0,40.1,29.97,North,0,0.0,0.0,64,0.00,,,0.00,WUHU216HW,2013-02-04 04:07:00,
2013-02-03 21:08:00,52.0,40.1,29.97,North,0,0.0,0.0,64,0.00,,,0.00,WUHU216HW,2013-02-04 04:08:00,
2013-02-03 21:09:00,52.0,40.1,29.97,North,0,0.0,0.0,64,0.00,,,0.00,WUHU216HW,2013-02-04 04:09:00,
2013-02-03 21:10:00,52.0,40.1,29.97,North,0,0.0,0.0,64,0.00,,,0.00,WUHU216HW,2013-02-04 04:10:00,
2013-02-03 21:13:00,51.8,40.0,29.97,North,0,0.0,0.0,64,0.00,,,0.00,WUHU216HW,2013-02-04 04:13:00,
2013-02-03 21:14:00,51.8,40.0,29.97,North,0,0.0,0.0,64,0.00,,,0.00,WUHU216HW,2013-02-04 04:14:00,
2013-02-03 21:15:00,51.8,40.0,29.98,North,0,0.0,0.0,64,0.00,,,0.00,WUHU216HW,2013-02-04 04:15:00,
2013-02-03 21:19:00,51.7,39.9,29.97,North,0,0.0,0.0,64,0.00,,,0.00,WUHU216HW,2013-02-04 04:19:00,
2013-02-03 21:20:00,51.5,39.7,29.97,North,0,0.0,0.0,64,0.00,,,0.00,WUHU216HW,2013-02-04 04:20:00,
2013-02-03 21:21:00,51.5,39.7,29.97,North,0,0.0,0.0,64,0.00,,,0.00,WUHU216HW,2013-02-04 04:21:00,
2013-02-03 21:24:00,51.5,39.7,29.98,North,0,0.0,0.0,64,0.00,,,0.00,WUHU216HW,2013-02-04 04:24:00,
2013-02-03 21:26:00,51.3,39.5,29.98,North,0,0.0,0.0,64,0.00,,,0.00,WUHU216HW,2013-02-04 04:26:00,
2013-02-03 21:29:00,51.3,39.5,29.98,North,0,0.0,0.0,64,0.00,,,0.00,WUHU216HW,2013-02-04 04:29:00,
2013-02-03 21:31:00,51.1,39.3,29.97,North,0,0.0,0.0,64,0.00,,,0.00,WUHU216HW,2013-02-04 04:31:00,
2013-02-03 21:32:00,51.1,39.3,29.97,North,0,0.0,0.0,64,0.00,,,0.00,WUHU216HW,2013-02-04 04:32:00,
2013-02-03 21:35:00,51.1,39.7,29.98,North,0,0.0,0.0,65,0.00,,,0.00,WUHU216HW,2013-02-04 04:35:00,
2013-02-03 21:37:00,50.9,39.5,29.97,North,0,0.0,0.0,65,0.00,,,0.00,WUHU216HW,2013-02-04 04:37:00,
2013-02-03 21:38:00,50.9,39.5,29.97,North,0,0.0,0.0,65,0.00,,,0.00,WUHU216HW,2013-02-04 04:38:00,
2013-02-03 21:40:00,50.8,39.8,29.97,North,0,0.0,0.0,66,0.00,,,0.00,WUHU216HW,2013-02-04 04:40:00,
2013-02-03 21:42:00,50.8,39.8,29.97,North,0,0.0,0.0,66,0.00,,,0.00,WUHU216HW,2013-02-04 04:42:00,
2013-02-03 21:44:00,50.8,39.4,29.97,North,0,0.0,0.0,65,0.00,,,0.00,WUHU216HW,2013-02-04 04:44:00,
2013-02-03 21:47:00,50.6,39.3,29.97,North,0,0.0,0.0,65,0.00,,,0.00,WUHU216HW,2013-02-04 04:47:00,
2013-02-03 21:48:00,50.6,39.3,29.97,North,0,0.0,0.0,65,0.00,,,0.00,WUHU216HW,2013-02-04 04:48:00,
2013-02-03 21:50:00,50.6,39.3,29.97,North,0,0.0,0.0,65,0.00,,,0.00,WUHU216HW,2013-02-04 04:50:00,
2013-02-03 21:53:00,50.6,38.8,29.97,North,0,0.0,0.0,64,0.00,,,0.00,WUHU216HW,2013-02-04 04:53:00,
2013-02-03 21:54:00,50.6,38.8,29.97,North,0,0.0,0.0,64,0.00,,,0.00,WUHU216HW,2013-02-04 04:54:00,
2013-02-03 21:55:00,50.6,38.8,29.97,North,0,0.0,0.0,64,0.00,,,0.00,WUHU216HW,2013-02-04 04:55:00,
2013-02-03 21:58:00,50.6,38.8,29.97,North,0,0.0,0.0,64,0.00,,,0.00,WUHU216HW,2013-02-04 04:58:00,
2013-02-03 21:59:00,50.6,38.8,29.97,North,0,0.0,0.0,64,0.00,,,0.00,WUHU216HW,2013-02-04 04:59:00,
2013-02-03 22:00:00,50.6,38.8,29.97,North,0,0.0,0.0,64,0.00,,,0.00,WUHU216HW,2013-02-04 05:00:00,
2013-02-03 22:03:00,50.4,38.6,29.97,North,0,0.0,0.0,64,0.00,,,0.00,WUHU216HW,2013-02-04 05:03:00,
2013-02-03 22:04:00,50.4,38.6,29.97,North,0,0.0,0.0,64,0.00,,,0.00,WUHU216HW,2013-02-04 05:04:00,
2013-02-03 22:06:00,50.4,38.6,29.97,North,0,0.0,0.0,64,0.00,,,0.00,WUHU216HW,2013-02-04 05:06:00,
2013-02-03 22:09:00,50.4,38.6,29.97,North,0,0.0,0.0,64,0.00,,,0.00,WUHU216HW,2013-02-04 05:09:00,
2013-02-03 22:11:00,50.2,38.1,29.97,North,0,0.0,0.0,63,0.00,,,0.00,WUHU216HW,2013-02-04 05:11:00,
2013-02-03 22:14:00,50.2,38.1,29.97,North,0,0.0,0.0,63,0.00,,,0.00,WUHU216HW,2013-02-04 05:14:00,
2013-02-03 22:15:00,50.2,38.1,29.97,North,0,0.0,0.0,63,0.00,,,0.00,WUHU216HW,2013-02-04 05:15:00,
2013-02-03 22:16:00,50.2,38.1,29.97,North,0,0.0,0.0,63,0.00,,,0.00,WUHU216HW,2013-02-04 05:16:00,
2013-02-03 22:20:00,50.0,37.5,29.96,North,0,0.0,0.0,62,0.00,,,0.00,WUHU216HW,2013-02-04 05:20:00,
2013-02-03 22:22:00,50.0,37.5,29.96,North,0,0.0,0.0,62,0.00,,,0.00,WUHU216HW,2013-02-04 05:22:00,
2013-02-03 22:23:00,50.0,37.5,29.96,North,0,0.0,0.0,62,0.00,,,0.00,WUHU216HW,2013-02-04 05:23:00,
2013-02-03 22:25:00,50.0,37.5,29.96,North,0,0.0,0.0,62,0.00,,,0.00,WUHU216HW,2013-02-04 05:25:00,
2013-02-03 22:26:00,49.9,37.4,29.96,North,0,0.0,0.0,62,0.00,,,0.00,WUHU216HW,2013-02-04 05:26:00,
2013-02-03 22:27:00,49.9,37.4,29.96,North,0,0.0,0.0,62,0.00,,,0.00,WUHU216HW,2013-02-04 05:27:00,
2013-02-03 22:28:00,49.7,37.2,29.96,North,0,0.0,0.0,62,0.00,,,0.00,WUHU216HW,2013-02-04 05:28:00,
2013-02-03 22:31:00,49.5,37.0,29.96,North,0,0.0,0.0,62,0.00,,,0.00,WUHU216HW,2013-02-04 05:31:00,
2013-02-03 22:33:00,49.5,37.0,29.96,North,0,0.0,0.0,62,0.00,,,0.00,WUHU216HW,2013-02-04 05:33:00,
2013-02-03 22:34:00,49.3,36.8,29.96,North,0,0.0,0.0,62,0.00,,,0.00,WUHU216HW,2013-02-04 05:34:00,
2013-02-03 22:36:00,49.3,36.8,29.96,North,0,0.0,0.0,62,0.00,,,0.00,WUHU216HW,2013-02-04 05:36:00,
2013-02-03 22:38:00,49.3,36.8,29.96,North,0,0.0,0.0,62,0.00,,,0.00,WUHU216HW,2013-02-04 05:38:00,
2013-02-03 22:39:00,49.3,36.8,29.96,North,0,0.0,0.0,62,0.00,,,0.00,WUHU216HW,2013-02-04 05:39:00,
2013-02-03 22:41:00,49.3,36.8,29.96,North,0,0.0,0.0,62,0.00,,,0.00,WUHU216HW,2013-02-04 05:41:00,
2013-02-03 22:42:00,49.1,36.7,29.96,North,0,0.0,0.0,62,0.00,,,0.00,WUHU216HW,2013-02-04 05:42:00,
2013-02-03 22:44:00,49.1,36.7,29.96,North,0,0.0,0.0,62,0.00,,,0.00,WUHU216HW,2013-02-04 05:44:00,
2013-02-03 22:47:00,49.1,37.1,29.96,North,0,0.0,0.0,63,0.00,,,0.00,WUHU216HW,2013-02-04 05:47:00,
2013-02-03 22:49:00,49.1,37.1,29.96,North,0,0.0,0.0,63,0.00,,,0.00,WUHU216HW,2013-02-04 05:49:00,
2013-02-03 22:50:00,49.1,36.7,29.96,North,0,0.0,0.0,62,0.00,,,0.00,WUHU216HW,2013-02-04 05:50:00,
2013-02-03 22:52:00,49.1,36.7,29.96,North,0,0.0,0.0,62,0.00,,,0.00,WUHU216HW,2013-02-04 05:52:00,
2013-02-03 22:54:00,49.0,36.6,29.96,North,0,0.0,0.0,62,0.00,,,0.00,WUHU216HW,2013-02-04 05:54:00,
2013-02-03 22:55:00,49.0,36.6,29.96,North,0,0.0,0.0,62,0.00,,,0.00,WUHU216HW,2013-02-04 05:55:00,
2013-02-03 22:58:00,49.0,36.6,29.96,North,0,0.0,0.0,62,0.00,,,0.00,WUHU216HW,2013-02-04 05:58:00,
2013-02-03 22:59:00,49.0,36.6,29.96,North,0,0.0,0.0,62,0.00,,,0.00,WUHU216HW,2013-02-04 05:59:00,
2013-02-03 23:00:00,49.0,36.6,29.96,North,0,0.0,0.0,62,0.00,,,0.00,WUHU216HW,2013-02-04 06:00:00,
2013-02-03 23:01:00,49.0,36.6,29.96,North,0,0.0,0.0,62,0.00,,,0.00,WUHU216HW,2013-02-04 06:01:00,
2013-02-03 23:04:00,49.0,36.6,29.96,North,0,0.0,0.0,62,0.00,,,0.00,WUHU216HW,2013-02-04 06:04:00,
2013-02-03 23:05:00,49.0,36.6,29.96,North,0,0.0,0.0,62,0.00,,,0.00,WUHU216HW,2013-02-04 06:05:00,
2013-02-03 23:07:00,48.8,36.0,29.96,North,0,0.0,0.0,61,0.00,,,0.00,WUHU216HW,2013-02-04 06:07:00,
2013-02-03 23:09:00,48.6,35.8,29.96,North,0,0.0,0.0,61,0.00,,,0.00,WUHU216HW,2013-02-04 06:09:00,
2013-02-03 23:11:00,48.6,35.8,29.96,North,0,0.0,0.0,61,0.00,,,0.00,WUHU216HW,2013-02-04 06:11:00,
2013-02-03 23:13:00,48.6,35.8,29.96,North,0,0.0,0.0,61,0.00,,,0.00,WUHU216HW,2013-02-04 06:13:00,
2013-02-03 23:15:00,48.2,35.5,29.96,North,0,0.0,0.0,61,0.00,,,0.00,WUHU216HW,2013-02-04 06:15:00,
2013-02-03 23:16:00,48.2,35.5,29.96,North,0,0.0,0.0,61,0.00,,,0.00,WUHU216HW,2013-02-04 06:16:00,
2013-02-03 23:19:00,48.1,35.3,29.96,North,0,0.0,0.0,61,0.00,,,0.00,WUHU216HW,2013-02-04 06:19:00,
2013-02-03 23:20:00,47.9,35.1,29.96,North,0,0.0,0.0,61,0.00,,,0.00,WUHU216HW,2013-02-04 06:20:00,
2013-02-03 23:21:00,47.9,35.1,29.96,North,0,0.0,0.0,61,0.00,,,0.00,WUHU216HW,2013-02-04 06:21:00,
2013-02-03 23:22:00,47.9,35.1,29.96,North,0,0.0,0.0,61,0.00,,,0.00,WUHU216HW,2013-02-04 06:22:00,
2013-02-03 23:24:00,47.9,35.1,29.96,North,0,0.0,0.0,61,0.00,,,0.00,WUHU216HW,2013-02-04 06:24:00,
2013-02-03 23:25:00,47.9,35.1,29.96,North,0,0.0,0.0,61,0.00,,,0.00,WUHU216HW,2013-02-04 06:25:00,
2013-02-03 23:26:00,47.9,35.1,29.96,North,0,0.0,0.0,61,0.00,,,0.00,WUHU216HW,2013-02-04 06:26:00,
2013-02-03 23:28:00,47.9,35.1,29.96,North,0,0.0,0.0,61,0.00,,,0.00,WUHU216HW,2013-02-04 06:28:00,
2013-02-03 23:31:00,47.9,35.5,29.96,North,0,0.0,0.0,62,0.00,,,0.00,WUHU216HW,2013-02-04 06:31:00,
2013-02-03 23:33:00,47.9,35.5,29.96,North,0,0.0,0.0,62,0.00,,,0.00,WUHU216HW,2013-02-04 06:33:00,
2013-02-03 23:36:00,47.7,35.4,29.96,North,0,0.0,0.0,62,0.00,,,0.00,WUHU216HW,2013-02-04 06:36:00,
2013-02-03 23:37:00,47.7,35.4,29.96,North,0,0.0,0.0,62,0.00,,,0.00,WUHU216HW,2013-02-04 06:37:00,
2013-02-03 23:39:00,47.5,35.2,29.96,North,0,0.0,0.0,62,0.00,,,0.00,WUHU216HW,2013-02-04 06:39:00,
2013-02-03 23:42:00,47.5,35.2,29.96,North,0,0.0,0.0,62,0.00,,,0.00,WUHU216HW,2013-02-04 06:42:00,
2013-02-03 23:44:00,47.3,35.0,29.96,North,0,0.0,0.0,62,0.00,,,0.00,WUHU216HW,2013-02-04 06:44:00,
2013-02-03 23:47:00,47.3,35.0,29.96,North,0,0.0,0.0,62,0.00,,,0.00,WUHU216HW,2013-02-04 06:47:00,
2013-02-03 23:48:00,47.2,34.8,29.96,North,0,0.0,0.0,62,0.00,,,0.00,WUHU216HW,2013-02-04 06:48:00,
2013-02-03 23:50:00,47.2,34.8,29.96,North,0,0.0,0.0,62,0.00,,,0.00,WUHU216HW,2013-02-04 06:50:00,
2013-02-03 23:52:00,47.2,34.8,29.96,North,0,0.0,0.0,62,0.00,,,0.00,WUHU216HW,2013-02-04 06:52:00,
2013-02-03 23:54:00,47.2,34.8,29.96,North,0,0.0,0.0,62,0.00,,,0.00,WUHU216HW,2013-02-04 06:54:00,
2013-02-03 23:55:00,47.2,34.8,29.96,North,0,0.0,0.0,62,0.00,,,0.00,WUHU216HW,2013-02-04 06:55:00,
2013-02-03 23:56:00,47.0,34.7,29.96,North,0,0.0,0.0,62,0.00,,,0.00,WUHU216HW,2013-02-04 06:56:00,
2013-02-03 23:59:00,46.8,34.8,29.96,North,0,0.0,0.0,63,0.00,,,0.00,WUHU216HW,2013-02-04 06:59:00,